N4ASP-13 Weather Reports


time (UTC)temp
C
wind
direction
speed
KPH
gust
KPH
rain 1hr
cm
rain 24hr
cm
rain mn
cm
humidity
%
barometer
mb
20260905132118 28 295 0.0 0.0 0.00 0.00 0.00 74 1016.4
20260905132018 28 294 0.0 0.0 0.00 0.00 0.00 75 1016.3
20260905131915 28 294 0.0 0.0 0.00 0.00 0.00 75 1016.4
20260905131816 28 294 0.0 0.0 0.00 0.00 0.00 74 1016.3
20260905131713 28 294 0.0 0.0 0.00 0.00 0.00 74 1016.4
20260905131610 28 294 0.0 0.0 0.00 0.00 0.00 73 1016.4
20260905131508 28 294 0.0 0.0 0.00 0.00 0.00 73 1016.4
20260905131407 28 294 0.0 0.0 0.00 0.00 0.00 73 1016.4
20260905131309 28 294 0.0 0.0 0.00 0.00 0.00 74 1016.4
20260905131208 28 294 0.0 0.0 0.00 0.00 0.00 74 1016.4
20260905131103 28 294 0.0 0.0 0.00 0.00 0.00 75 1016.4
20260905131005 28 293 0.0 0.0 0.00 0.00 0.00 75 1016.4
20260905130903 28 293 0.0 0.0 0.00 0.00 0.00 75 1016.5
20260905130802 27 293 0.0 0.0 0.00 0.00 0.00 75 1016.4
20260905130701 27 293 0.0 0.0 0.00 0.00 0.00 74 1016.4
20260905130556 27 292 0.0 0.0 0.00 0.00 0.00 74 1016.4
20260905130455 27 292 0.0 0.0 0.00 0.00 0.00 75 1016.5
20260905130355 27 331 0.0 0.0 0.00 0.00 0.00 76 1016.4
20260905130253 27 331 0.0 0.0 0.00 0.00 0.00 74 1016.4
20260905130151 27 335 0.0 0.0 0.00 0.00 0.00 75 1016.5
20260905130052 27 336 0.0 0.0 0.00 0.00 0.00 75 1016.5
20260905125948 27 288 0.0 0.0 0.00 0.00 0.00 76 1016.5
20260905125848 27 321 0.0 0.0 0.00 0.00 0.00 75 1016.4
20260905125748 27 321 0.0 0.0 0.00 0.00 0.00 76 1016.5
20260905125645 27 321 0.0 0.0 0.00 0.00 0.00 76 1016.4
20260905125542 27 321 0.0 0.0 0.00 0.00 0.00 74 1016.4
20260905125439 27 292 0.0 0.0 0.00 0.00 0.00 75 1016.4
20260905125340 27 292 0.0 0.0 0.00 0.00 0.00 73 1016.5
20260905125238 27 292 0.0 0.0 0.00 0.00 0.00 75 1016.5
20260905125140 27 292 0.0 0.0 0.00 0.00 0.00 75 1016.4
20260905125032 27 292 0.0 1.6 0.00 0.00 0.00 74 1016.4
20260905124933 27 292 0.0 6.4 0.00 0.00 0.00 74 1016.5
20260905124831 27 321 0.0 6.4 0.00 0.00 0.00 75 1016.5
20260905124732 27 295 1.6 6.4 0.00 0.00 0.00 75 1016.5
20260905124630 27 295 1.6 6.4 0.00 0.00 0.00 75 1016.5
20260905124529 27 320 1.6 6.4 0.00 0.00 0.00 75 1016.5
20260905124427 27 324 1.6 6.4 0.00 0.00 0.00 75 1016.5
20260905124326 27 268 1.6 6.4 0.00 0.00 0.00 74 1016.5
20260905124225 27 268 1.6 6.4 0.00 0.00 0.00 75 1016.5
20260905124124 27 304 3.2 6.4 0.00 0.00 0.00 74 1016.5
20260905124018 27 304 3.2 6.4 0.00 0.00 0.00 75 1016.4
20260905123917 27 284 3.2 8.0 0.00 0.00 0.00 75 1016.4
20260905123819 27 284 3.2 11.3 0.00 0.00 0.00 75 1016.4
20260905123717 27 288 3.2 11.3 0.00 0.00 0.00 76 1016.5
20260905123618 27 295 4.8 11.3 0.00 0.00 0.00 76 1016.4
20260905123508 27 295 4.8 11.3 0.00 0.00 0.00 75 1016.4
20260905123409 27 295 4.8 11.3 0.00 0.00 0.00 75 1016.4
20260905123308 27 306 4.8 11.3 0.00 0.00 0.00 76 1016.5
20260905123207 27 307 6.4 11.3 0.00 0.00 0.00 75 1016.5
20260905123107 27 308 6.4 11.3 0.00 0.00 0.00 75 1016.4
20260905123005 27 302 6.4 11.3 0.00 0.00 0.00 75 1016.3
20260905122901 26 302 6.4 11.3 0.00 0.00 0.00 76 1016.4
20260905122801 26 302 6.4 8.0 0.00 0.00 0.00 76 1016.4
20260905122703 26 302 6.4 8.0 0.00 0.00 0.00 75 1016.3
20260905122602 26 290 6.4 8.0 0.00 0.00 0.00 75 1016.4
20260905122459 26 316 4.8 8.0 0.00 0.00 0.00 74 1016.4
20260905122359 26 308 4.8 8.0 0.00 0.00 0.00 75 1016.4
20260905122259 26 299 4.8 8.0 0.00 0.00 0.00 75 1016.5
20260905122158 26 299 4.8 9.7 0.00 0.00 0.00 76 1016.4
20260905122056 26 299 3.2 9.7 0.00 0.00 0.00 75 1016.5
20260905121949 26 298 3.2 9.7 0.00 0.00 0.00 76 1016.4
20260905121850 26 298 3.2 9.7 0.00 0.00 0.00 75 1016.5
20260905121748 26 298 3.2 9.7 0.00 0.00 0.00 75 1016.5
20260905121647 26 295 3.2 9.7 0.00 0.00 0.00 75 1016.4
20260905121546 26 295 3.2 11.3 0.00 0.00 0.00 75 1016.5
20260905121440 26 306 3.2 11.3 0.00 0.00 0.00 75 1016.5
20260905121339 26 315 4.8 11.3 0.00 0.00 0.00 76 1016.5
20260905121240 26 324 4.8 11.3 0.00 0.00 0.00 75 1016.4
20260905121140 26 315 4.8 12.9 0.00 0.00 0.00 75 1016.5
20260905121040 26 319 6.4 12.9 0.00 0.00 0.00 76 1016.4
20260905120936 26 325 6.4 12.9 0.00 0.00 0.00 76 1016.4
20260905120836 26 328 6.4 12.9 0.00 0.00 0.00 75 1016.3
20260905120734 26 294 6.4 12.9 0.00 0.00 0.00 76 1016.3
20260905120635 26 308 6.4 12.9 0.00 0.00 0.00 76 1016.4
20260905120533 26 311 6.4 12.9 0.00 0.00 0.00 76 1016.4
20260905120426 26 306 6.4 12.9 0.00 0.00 0.00 76 1016.5
20260905120324 26 288 6.4 12.9 0.00 0.00 0.00 77 1016.4
20260905120223 26 282 6.4 12.9 0.00 0.00 0.00 76 1016.5
20260905120123 26 306 4.8 12.9 0.00 0.00 0.00 77 1016.4
20260905120023 26 302 4.8 8.0 0.00 0.00 0.00 77 1016.5
20260905115921 26 301 4.8 8.0 0.00 0.00 0.00 77 1016.4
20260905115822 25 301 4.8 8.0 0.00 0.00 0.00 78 1016.5
20260905115719 25 303 4.8 8.0 0.00 0.00 0.00 78 1016.4
20260905115620 25 303 3.2 8.0 0.00 0.00 0.00 77 1016.3
20260905115517 25 298 3.2 8.0 0.00 0.00 0.00 78 1016.2
20260905115415 25 298 3.2 8.0 0.00 0.00 0.00 78 1016.3
20260905115314 25 293 3.2 8.0 0.00 0.00 0.00 78 1016.3
20260905115215 25 293 1.6 8.0 0.00 0.00 0.00 78 1016.3
20260905115114 25 280 1.6 6.4 0.00 0.00 0.00 78 1016.3
20260905115011 25 280 0.0 6.4 0.00 0.00 0.00 78 1016.3
20260905114906 25 255 0.0 4.8 0.00 0.00 0.00 79 1016.3
20260905114806 25 255 0.0 3.2 0.00 0.00 0.00 79 1016.3
20260905114704 25 255 0.0 3.2 0.00 0.00 0.00 79 1016.3
20260905114604 25 254 0.0 3.2 0.00 0.00 0.00 79 1016.2
20260905114502 25 254 0.0 3.2 0.00 0.00 0.00 79 1016.2
20260905114359 25 254 0.0 3.2 0.00 0.00 0.00 79 1016.2
20260905114300 25 267 0.0 0.0 0.00 0.00 0.00 79 1016.2
20260905114200 25 267 0.0 0.0 0.00 0.00 0.00 79 1016.2
20260905114058 25 267 0.0 0.0 0.00 0.00 0.00 80 1016.1
20260905113956 25 271 0.0 0.0 0.00 0.00 0.00 80 1016.1
20260905113855 25 271 0.0 0.0 0.00 0.00 0.00 80 1016.1
20260905113754 25 271 0.0 0.0 0.00 0.00 0.00 80 1016.2
20260905113651 25 271 0.0 0.0 0.00 0.00 0.00 80 1016.1
20260905113552 25 271 0.0 0.0 0.00 0.00 0.00 80 1016.2
20260905113450 25 271 0.0 0.0 0.00 0.00 0.00 80 1016.1
20260905113345 25 271 0.0 0.0 0.00 0.00 0.00 80 1016.1
20260905113245 25 271 0.0 0.0 0.00 0.00 0.00 81 1016.1
20260905113141 25 271 0.0 0.0 0.00 0.00 0.00 81 1016.0
20260905113040 25 271 0.0 0.0 0.00 0.00 0.00 80 1016.0
20260905112940 25 271 0.0 0.0 0.00 0.00 0.00 80 1016.0
20260905112839 25 271 0.0 0.0 0.00 0.00 0.00 80 1016.0
20260905112738 25 271 0.0 0.0 0.00 0.00 0.00 80 1016.0
20260905112638 25 271 0.0 0.0 0.00 0.00 0.00 80 1015.9
20260905112536 25 271 0.0 0.0 0.00 0.00 0.00 80 1016.0
20260905112434 25 271 0.0 0.0 0.00 0.00 0.00 81 1016.0
20260905112330 24 271 0.0 0.0 0.00 0.00 0.00 81 1015.9
20260905112230 24 271 0.0 0.0 0.00 0.00 0.00 81 1015.9
20260905112128 24 271 0.0 0.0 0.00 0.00 0.00 81 1015.8
20260905112030 24 271 0.0 0.0 0.00 0.00 0.00 81 1015.8
20260905111928 24 271 0.0 0.0 0.00 0.00 0.00 81 1015.9
20260905111819 24 271 0.0 0.0 0.00 0.00 0.00 80 1015.9
20260905111717 24 271 0.0 0.0 0.00 0.00 0.00 80 1015.8
20260905111617 24 271 0.0 0.0 0.00 0.00 0.00 81 1015.8
20260905111518 24 271 0.0 0.0 0.00 0.00 0.00 81 1015.8
20260905111418 24 271 0.0 0.0 0.00 0.00 0.00 81 1015.9
20260905111313 24 271 0.0 0.0 0.00 0.00 0.00 81 1015.8
20260905111211 24 271 0.0 0.0 0.00 0.00 0.00 81 1015.8
20260905111112 25 271 0.0 0.0 0.00 0.00 0.00 81 1015.8
20260905111010 24 271 0.0 0.0 0.00 0.00 0.00 80 1015.9
20260905110911 25 271 0.0 0.0 0.00 0.00 0.00 80 1015.9
20260905110806 25 271 0.0 0.0 0.00 0.00 0.00 80 1015.9
20260905110706 25 271 0.0 0.0 0.00 0.00 0.00 80 1015.8
20260905110606 25 271 0.0 0.0 0.00 0.00 0.00 80 1015.9
20260905110505 25 271 0.0 0.0 0.00 0.00 0.00 80 1015.9
20260905110406 25 271 0.0 0.0 0.00 0.00 0.00 80 1015.7
20260905110257 25 271 0.0 0.0 0.00 0.00 0.00 80 1015.7
20260905110155 25 271 0.0 0.0 0.00 0.00 0.00 80 1015.7
20260905110054 25 271 0.0 0.0 0.00 0.00 0.00 80 1015.7
20260905105956 25 271 0.0 0.0 0.00 0.00 0.00 80 1015.7
20260905105856 25 271 0.0 0.0 0.00 0.00 0.00 80 1015.7
20260905105754 25 271 0.0 0.0 0.00 0.00 0.00 80 1015.6
20260905105654 25 271 0.0 0.0 0.00 0.00 0.00 80 1015.6
20260905105553 25 271 0.0 0.0 0.00 0.00 0.00 80 1015.7
20260905105451 25 272 0.0 0.0 0.00 0.00 0.00 80 1015.6
20260905105350 25 272 0.0 0.0 0.00 0.00 0.00 80 1015.6
20260905105250 25 272 0.0 0.0 0.00 0.00 0.00 79 1015.6
20260905105147 25 272 0.0 0.0 0.00 0.00 0.00 79 1015.6
20260905105047 25 272 0.0 0.0 0.00 0.00 0.00 79 1015.6
20260905104945 25 272 0.0 0.0 0.00 0.00 0.00 79 1015.7
20260905104844 25 272 0.0 0.0 0.00 0.00 0.00 79 1015.7
20260905104738 25 272 0.0 0.0 0.00 0.00 0.00 79 1015.6
20260905104637 25 272 0.0 0.0 0.00 0.00 0.00 79 1015.6
20260905104538 25 272 0.0 0.0 0.00 0.00 0.00 79 1015.6
20260905104436 25 272 0.0 0.0 0.00 0.00 0.00 79 1015.6
20260905104333 25 272 0.0 0.0 0.00 0.00 0.00 79 1015.6
20260905104235 25 272 0.0 0.0 0.00 0.00 0.00 79 1015.6
20260905104131 25 272 0.0 0.0 0.00 0.00 0.00 79 1015.6
20260905104031 25 272 0.0 0.0 0.00 0.00 0.00 78 1015.6
20260905103930 25 272 0.0 0.0 0.00 0.00 0.00 79 1015.6
20260905103828 25 272 0.0 0.0 0.00 0.00 0.00 78 1015.5
20260905103728 25 272 0.0 0.0 0.00 0.00 0.00 78 1015.5
20260905103626 25 272 0.0 0.0 0.00 0.00 0.00 78 1015.5
20260905103524 25 272 0.0 0.0 0.00 0.00 0.00 78 1015.6
20260905103424 25 272 0.0 0.0 0.00 0.00 0.00 78 1015.6
20260905103322 25 272 0.0 0.0 0.00 0.00 0.00 78 1015.6
20260905103216 25 272 0.0 0.0 0.00 0.00 0.00 78 1015.6
20260905103115 25 272 0.0 0.0 0.00 0.00 0.00 78 1015.5
20260905103015 25 272 0.0 0.0 0.00 0.00 0.00 78 1015.6
20260905102913 25 272 0.0 0.0 0.00 0.00 0.00 78 1015.5
20260905102811 25 272 0.0 0.0 0.00 0.00 0.00 78 1015.6
20260905102705 25 271 0.0 0.0 0.00 0.00 0.00 78 1015.5
20260905102605 25 271 0.0 0.0 0.00 0.00 0.00 78 1015.6
20260905102505 25 271 0.0 0.0 0.00 0.00 0.00 78 1015.6
20260905102404 25 271 0.0 0.0 0.00 0.00 0.00 78 1015.6
20260905102306 25 271 0.0 0.0 0.00 0.00 0.00 78 1015.6
20260905102202 25 271 0.0 0.0 0.00 0.00 0.00 78 1015.6
20260905102102 25 271 0.0 0.0 0.00 0.00 0.00 78 1015.7
20260905102003 25 270 0.0 0.0 0.00 0.00 0.00 78 1015.7
20260905101902 25 271 0.0 0.0 0.00 0.00 0.00 78 1015.6
20260905101800 25 271 0.0 0.0 0.00 0.00 0.00 78 1015.7
20260905101654 25 271 0.0 0.0 0.00 0.00 0.00 78 1015.6
20260905101553 25 271 0.0 0.0 0.00 0.00 0.00 78 1015.6
20260905101454 25 271 0.0 0.0 0.00 0.00 0.00 78 1015.6
20260905101353 25 271 0.0 0.0 0.00 0.00 0.00 78 1015.6
20260905101249 25 271 0.0 0.0 0.00 0.00 0.00 78 1015.6
20260905101150 25 271 0.0 0.0 0.00 0.00 0.00 78 1015.6
20260905101047 25 271 0.0 0.0 0.00 0.00 0.00 78 1015.6
20260905100948 25 270 0.0 0.0 0.00 0.00 0.00 78 1015.6
20260905100846 25 270 0.0 0.0 0.00 0.00 0.00 78 1015.6
20260905100744 25 270 0.0 0.0 0.00 0.00 0.00 78 1015.5
20260905100638 25 293 0.0 0.0 0.00 0.00 0.00 78 1015.6
20260905100540 25 294 0.0 0.0 0.00 0.00 0.00 78 1015.5
20260905100439 25 259 0.0 0.0 0.00 0.00 0.00 78 1015.6
20260905100339 25 272 0.0 0.0 0.00 0.00 0.00 78 1015.5
20260905100237 25 272 0.0 0.0 0.00 0.00 0.00 78 1015.6
20260905100132 25 274 0.0 0.0 0.00 0.00 0.00 78 1015.5
20260905100031 25 274 0.0 0.0 0.00 0.00 0.00 78 1015.5
20260905095932 25 274 0.0 0.0 0.00 0.00 0.00 79 1015.5
20260905095830 25 274 0.0 0.0 0.00 0.00 0.00 78 1015.5
20260905095728 25 274 0.0 0.0 0.00 0.00 0.00 78 1015.5
20260905095627 25 275 0.0 0.0 0.00 0.00 0.00 79 1015.5
20260905095525 25 274 0.0 0.0 0.00 0.00 0.00 79 1015.4
20260905095426 25 275 0.0 0.0 0.00 0.00 0.00 79 1015.5
20260905095324 25 275 0.0 0.0 0.00 0.00 0.00 79 1015.5
20260905095222 25 275 0.0 0.0 0.00 0.00 0.00 79 1015.5
20260905095122 25 275 0.0 0.0 0.00 0.00 0.00 79 1015.5
20260905095019 25 275 0.0 0.0 0.00 0.00 0.00 79 1015.4
20260905094919 25 275 0.0 0.0 0.00 0.00 0.00 79 1015.4
20260905094817 25 274 0.0 0.0 0.00 0.00 0.00 79 1015.5
20260905094716 25 274 0.0 0.0 0.00 0.00 0.00 79 1015.4
20260905094604 25 274 0.0 0.0 0.00 0.00 0.00 79 1015.5
20260905094504 25 274 0.0 0.0 0.00 0.00 0.00 79 1015.4
20260905094405 25 274 0.0 0.0 0.00 0.00 0.00 79 1015.5
20260905094305 25 281 0.0 0.0 0.00 0.00 0.00 79 1015.5
20260905094205 25 281 0.0 0.0 0.00 0.00 0.00 79 1015.3
20260905094102 25 279 0.0 0.0 0.00 0.00 0.00 79 1015.4
20260905094000 25 279 0.0 0.0 0.00 0.00 0.00 79 1015.3
20260905093902 25 279 0.0 0.0 0.00 0.00 0.00 80 1015.3
20260905093801 25 280 0.0 0.0 0.00 0.00 0.00 80 1015.3
20260905093700 25 280 0.0 0.0 0.00 0.00 0.00 80 1015.4
20260905093559 25 280 0.0 0.0 0.00 0.00 0.00 80 1015.4
20260905093458 25 280 0.0 0.0 0.00 0.00 0.00 80 1015.3
20260905093357 25 280 0.0 0.0 0.00 0.00 0.00 80 1015.3
20260905093255 25 280 0.0 0.0 0.00 0.00 0.00 80 1015.3
20260905093154 25 280 0.0 0.0 0.00 0.00 0.00 80 1015.4
20260905093047 25 280 0.0 0.0 0.00 0.00 0.00 80 1015.4
20260905092947 25 280 0.0 0.0 0.00 0.00 0.00 80 1015.3
20260905092848 25 280 0.0 0.0 0.00 0.00 0.00 80 1015.3
20260905092745 25 280 0.0 0.0 0.00 0.00 0.00 80 1015.3
20260905092643 25 280 0.0 0.0 0.00 0.00 0.00 80 1015.3
20260905092542 25 280 0.0 0.0 0.00 0.00 0.00 80 1015.1
20260905092442 25 280 0.0 0.0 0.00 0.00 0.00 80 1015.3
20260905092342 25 280 0.0 0.0 0.00 0.00 0.00 80 1015.3
20260905092239 25 280 0.0 0.0 0.00 0.00 0.00 80 1015.1
20260905092137 25 280 0.0 0.0 0.00 0.00 0.00 80 1015.1
20260905092037 25 280 0.0 0.0 0.00 0.00 0.00 80 1015.1
20260905091936 25 280 0.0 0.0 0.00 0.00 0.00 80 1015.1
20260905091834 25 280 0.0 0.0 0.00 0.00 0.00 80 1015.1
20260905091734 25 280 0.0 0.0 0.00 0.00 0.00 80 1015.1
20260905091632 25 280 0.0 0.0 0.00 0.00 0.00 80 1015.3
20260905091526 25 280 0.0 0.0 0.00 0.00 0.00 80 1015.3
20260905091424 25 280 0.0 0.0 0.00 0.00 0.00 80 1015.4
20260905091324 25 280 0.0 0.0 0.00 0.00 0.00 80 1015.3
20260905091224 25 280 0.0 0.0 0.00 0.00 0.00 80 1015.3
20260905091122 25 280 0.0 0.0 0.00 0.00 0.00 80 1015.3
20260905091022 25 280 0.0 0.0 0.00 0.00 0.00 80 1015.1
20260905090920 25 280 0.0 0.0 0.00 0.00 0.00 80 1015.3
20260905090820 25 280 0.0 0.0 0.00 0.00 0.00 80 1015.3
20260905090717 25 280 0.0 0.0 0.00 0.00 0.00 80 1015.3
20260905090616 25 280 0.0 0.0 0.00 0.00 0.00 80 1015.3
20260905090516 25 279 0.0 0.0 0.00 0.00 0.00 80 1015.1
20260905090412 25 280 0.0 0.0 0.00 0.00 0.00 80 1015.3
20260905090311 25 280 0.0 0.0 0.00 0.00 0.00 80 1015.3
20260905090212 25 280 0.0 0.0 0.00 0.00 0.00 80 1015.4
20260905090109 25 280 0.0 0.0 0.00 0.00 0.00 80 1015.4
20260905090004 25 279 0.0 0.0 0.00 0.00 0.00 80 1015.4
20260905085905 25 279 0.0 0.0 0.00 0.00 0.00 80 1015.4
20260905085805 25 279 0.0 0.0 0.00 0.00 0.00 80 1015.3
20260905085705 25 279 0.0 0.0 0.00 0.00 0.00 80 1015.3
20260905085606 25 279 0.0 0.0 0.00 0.00 0.00 80 1015.4
20260905085506 25 279 0.0 0.0 0.00 0.00 0.00 80 1015.4
20260905085405 25 279 0.0 0.0 0.00 0.00 0.00 80 1015.4
20260905085306 25 279 0.0 0.0 0.00 0.00 0.00 80 1015.4
20260905085202 25 279 0.0 0.0 0.00 0.00 0.00 80 1015.4
20260905085103 25 280 0.0 0.0 0.00 0.00 0.00 80 1015.4
20260905085002 25 280 0.0 0.0 0.00 0.00 0.00 80 1015.4
20260905084902 25 280 0.0 0.0 0.00 0.00 0.00 80 1015.5
20260905084803 25 280 0.0 0.0 0.00 0.00 0.00 80 1015.6
20260905084702 25 280 0.0 0.0 0.00 0.00 0.00 80 1015.5
20260905084601 25 280 0.0 0.0 0.00 0.00 0.00 80 1015.5
20260905084501 25 280 0.0 0.0 0.00 0.00 0.00 80 1015.6
20260905084401 25 280 0.0 0.0 0.00 0.00 0.00 80 1015.6
20260905084256 25 280 0.0 0.0 0.00 0.00 0.00 80 1015.7
20260905084158 25 280 0.0 0.0 0.00 0.00 0.00 80 1015.6
20260905084056 25 280 0.0 0.0 0.00 0.00 0.00 80 1015.7
20260905083958 25 286 0.0 0.0 0.00 0.00 0.00 80 1015.6
20260905083856 25 286 0.0 0.0 0.00 0.00 0.00 80 1015.6
20260905083756 25 286 0.0 0.0 0.00 0.00 0.00 80 1015.7
20260905083652 25 286 0.0 0.0 0.00 0.00 0.00 80 1015.7
20260905083554 25 286 0.0 0.0 0.00 0.00 0.00 80 1015.7
20260905083450 25 286 0.0 0.0 0.00 0.00 0.00 80 1015.8
20260905083350 25 286 0.0 0.0 0.00 0.00 0.00 80 1015.7
20260905083252 25 286 0.0 0.0 0.00 0.00 0.00 80 1015.7
20260905083150 25 286 0.0 0.0 0.00 0.00 0.00 80 1015.7
20260905083052 25 286 0.0 0.0 0.00 0.00 0.00 80 1015.8
20260905082950 25 286 0.0 0.0 0.00 0.00 0.00 80 1015.8
20260905082852 25 286 0.0 0.0 0.00 0.00 0.00 80 1015.8
20260905082750 25 286 0.0 0.0 0.00 0.00 0.00 80 1015.7
20260905082646 25 286 0.0 0.0 0.00 0.00 0.00 80 1015.8
20260905082547 25 286 0.0 0.0 0.00 0.00 0.00 80 1015.8
20260905082445 25 286 0.0 0.0 0.00 0.00 0.00 80 1015.8
20260905082345 25 286 0.0 0.0 0.00 0.00 0.00 80 1015.8
20260905082243 25 286 0.0 0.0 0.00 0.00 0.00 80 1015.9
20260905082142 25 286 0.0 0.0 0.00 0.00 0.00 80 1015.9
20260905082041 25 286 0.0 0.0 0.00 0.00 0.00 80 1015.8
20260905081939 25 286 0.0 0.0 0.00 0.00 0.00 80 1015.8
20260905081838 25 286 0.0 0.0 0.00 0.00 0.00 80 1015.8
20260905081736 25 286 0.0 0.0 0.00 0.00 0.00 80 1015.8
20260905081635 25 286 0.0 0.0 0.00 0.00 0.00 80 1015.8
20260905081534 25 286 0.0 0.0 0.00 0.00 0.00 80 1015.8
20260905081436 25 286 0.0 0.0 0.00 0.00 0.00 80 1015.8
20260905081335 25 286 0.0 0.0 0.00 0.00 0.00 80 1015.9
20260905081234 25 286 0.0 0.0 0.00 0.00 0.00 80 1015.8
20260905081132 25 286 0.0 0.0 0.00 0.00 0.00 80 1015.8
20260905081027 25 286 0.0 0.0 0.00 0.00 0.00 80 1015.9
20260905080927 25 286 0.0 0.0 0.00 0.00 0.00 80 1015.9
20260905080827 25 286 0.0 0.0 0.00 0.00 0.00 80 1016.0
20260905080727 25 286 0.0 0.0 0.00 0.00 0.00 80 1016.0
20260905080626 25 286 0.0 0.0 0.00 0.00 0.00 80 1016.0
20260905080525 25 286 0.0 0.0 0.00 0.00 0.00 80 1015.9
20260905080422 25 286 0.0 0.0 0.00 0.00 0.00 80 1016.0
20260905080322 25 286 0.0 0.0 0.00 0.00 0.00 80 1015.9
20260905080222 25 286 0.0 0.0 0.00 0.00 0.00 80 1016.0
20260905080120 25 286 0.0 0.0 0.00 0.00 0.00 80 1016.0
20260905080021 25 286 0.0 0.0 0.00 0.00 0.00 80 1016.0
20260905075920 25 286 0.0 0.0 0.00 0.00 0.00 80 1015.9
20260905075821 25 286 0.0 0.0 0.00 0.00 0.00 80 1015.9
20260905075720 25 286 0.0 0.0 0.00 0.00 0.00 80 1016.0
20260905075619 25 286 0.0 0.0 0.00 0.00 0.00 80 1016.1
20260905075517 25 286 0.0 0.0 0.00 0.00 0.00 80 1016.0
20260905075415 25 286 0.0 0.0 0.00 0.00 0.00 80 1016.1
20260905075313 24 286 0.0 0.0 0.00 0.00 0.00 80 1016.1
20260905075213 24 286 0.0 0.0 0.00 0.00 0.00 80 1016.0
20260905075112 25 286 0.0 0.0 0.00 0.00 0.00 80 1016.1
20260905075013 25 286 0.0 0.0 0.00 0.00 0.00 80 1016.1
20260905074911 25 286 0.0 0.0 0.00 0.00 0.00 80 1016.1
20260905074812 25 286 0.0 0.0 0.00 0.00 0.00 80 1016.1
20260905074709 24 286 0.0 0.0 0.00 0.00 0.00 80 1016.1
20260905074610 25 286 0.0 0.0 0.00 0.00 0.00 80 1016.2
20260905074507 25 286 0.0 0.0 0.00 0.00 0.00 80 1016.2
20260905074408 25 286 0.0 0.0 0.00 0.00 0.00 80 1016.1
20260905074306 25 286 0.0 0.0 0.00 0.00 0.00 80 1016.1
20260905074207 25 286 0.0 0.0 0.00 0.00 0.00 80 1016.1
20260905074108 25 286 0.0 0.0 0.00 0.00 0.00 80 1016.1
20260905074006 25 286 0.0 0.0 0.00 0.00 0.00 80 1016.1
20260905073907 25 286 0.0 0.0 0.00 0.00 0.00 80 1016.2
20260905073805 25 287 0.0 0.0 0.00 0.00 0.00 80 1016.2
20260905073704 25 287 0.0 0.0 0.00 0.00 0.00 80 1016.3
20260905073605 25 287 0.0 0.0 0.00 0.00 0.00 80 1016.2
20260905073505 25 287 0.0 0.0 0.00 0.00 0.00 80 1016.2
20260905073404 25 287 0.0 0.0 0.00 0.00 0.00 80 1016.2
20260905073305 25 284 0.0 0.0 0.00 0.00 0.00 80 1016.3
20260905073204 25 284 0.0 0.0 0.00 0.00 0.00 80 1016.3
20260905073105 25 281 0.0 0.0 0.00 0.00 0.00 80 1016.3
20260905073007 25 271 0.0 0.0 0.00 0.00 0.00 80 1016.3
20260905072905 25 265 0.0 0.0 0.00 0.00 0.00 80 1016.3
20260905072805 25 259 0.0 0.0 0.00 0.00 0.00 80 1016.2
20260905072705 25 252 0.0 0.0 0.00 0.00 0.00 80 1016.2
20260905072606 25 175 0.0 0.0 0.00 0.00 0.00 80 1016.3
20260905072504 25 175 0.0 0.0 0.00 0.00 0.00 80 1016.3
20260905072406 25 175 0.0 0.0 0.00 0.00 0.00 80 1016.2
20260905072306 25 175 0.0 0.0 0.00 0.00 0.00 81 1016.2
20260905072204 25 175 0.0 0.0 0.00 0.00 0.00 81 1016.2
20260905072104 25 175 0.0 0.0 0.00 0.00 0.00 81 1016.2
20260905072005 25 175 0.0 0.0 0.00 0.00 0.00 81 1016.2
20260905071905 25 175 0.0 0.0 0.00 0.00 0.00 80 1016.2
20260905071806 25 175 0.0 0.0 0.00 0.00 0.00 80 1016.3
20260905071704 25 175 0.0 0.0 0.00 0.00 0.00 80 1016.3
20260905071605 25 175 0.0 0.0 0.00 0.00 0.00 80 1016.2
20260905071506 25 175 0.0 0.0 0.00 0.00 0.00 80 1016.3
20260905071405 25 175 0.0 0.0 0.00 0.00 0.00 80 1016.3
20260905071304 25 175 0.0 0.0 0.00 0.00 0.00 80 1016.3
20260905071205 25 175 0.0 0.0 0.00 0.00 0.00 80 1016.3
20260905071106 25 175 0.0 0.0 0.00 0.00 0.00 80 1016.3
20260905071000 25 175 0.0 0.0 0.00 0.00 0.00 80 1016.3
20260905070901 25 175 0.0 0.0 0.00 0.00 0.00 80 1016.3
20260905070802 25 175 0.0 0.0 0.00 0.00 0.00 80 1016.4
20260905070700 25 175 0.0 0.0 0.00 0.00 0.00 80 1016.3
20260905070602 25 175 0.0 0.0 0.00 0.00 0.00 80 1016.3
20260905070501 25 175 0.0 0.0 0.00 0.00 0.00 80 1016.3
20260905070400 25 175 0.0 0.0 0.00 0.00 0.00 80 1016.3
20260905070301 25 175 0.0 0.0 0.00 0.00 0.00 80 1016.4
20260905070200 25 175 0.0 0.0 0.00 0.00 0.00 80 1016.4
20260905070000 25 175 0.0 0.0 0.00 0.00 0.00 80 1016.4
20260905065900 25 175 0.0 0.0 0.00 0.00 0.00 80 1016.4
20260905065801 25 175 0.0 0.0 0.00 0.00 0.00 80 1016.4
20260905065700 25 175 0.0 0.0 0.00 0.00 0.00 80 1016.4
20260905065601 25 175 0.0 0.0 0.00 0.00 0.00 80 1016.5
20260905065500 25 175 0.0 0.0 0.00 0.00 0.00 80 1016.4
20260905065401 25 175 0.0 0.0 0.00 0.00 0.00 80 1016.4
20260905065302 25 175 0.0 0.0 0.00 0.00 0.00 80 1016.5
20260905065201 25 175 0.0 0.0 0.00 0.00 0.00 80 1016.5
20260905065102 25 175 0.0 0.0 0.00 0.00 0.00 80 1016.5
20260905065000 25 175 0.0 0.0 0.00 0.00 0.00 80 1016.5
20260905064901 25 175 0.0 0.0 0.00 0.00 0.00 80 1016.5
20260905064801 25 175 0.0 0.0 0.00 0.00 0.00 80 1016.6
20260905064702 25 175 0.0 0.0 0.00 0.00 0.00 80 1016.5
20260905064601 25 175 0.0 0.0 0.00 0.00 0.00 80 1016.5
20260905064502 25 175 0.0 0.0 0.00 0.00 0.00 80 1016.5
20260905064401 25 175 0.0 0.0 0.00 0.00 0.00 80 1016.5
20260905064301 25 175 0.0 0.0 0.00 0.00 0.00 80 1016.6
20260905064201 25 175 0.0 0.0 0.00 0.00 0.00 80 1016.5
20260905064100 25 175 0.0 0.0 0.00 0.00 0.00 80 1016.6
20260905064000 25 175 0.0 0.0 0.00 0.00 0.00 80 1016.6
20260905063900 25 175 0.0 0.0 0.00 0.00 0.00 79 1016.6
20260905063802 25 175 0.0 0.0 0.00 0.00 0.00 79 1016.6
20260905063657 25 175 0.0 0.0 0.00 0.00 0.00 79 1016.7
20260905063556 25 175 0.0 0.0 0.00 0.00 0.00 79 1016.7
20260905063457 25 175 0.0 0.0 0.00 0.00 0.00 79 1016.7
20260905063356 25 175 0.0 0.0 0.00 0.00 0.00 79 1016.7
20260905063257 25 175 0.0 0.0 0.00 0.00 0.00 79 1016.7
20260905063158 25 175 0.0 0.0 0.00 0.00 0.00 79 1016.7
20260905063057 25 175 0.0 0.0 0.00 0.00 0.00 79 1016.9
20260905062958 25 175 0.0 0.0 0.00 0.00 0.00 78 1016.9
20260905062857 25 175 0.0 0.0 0.00 0.00 0.00 78 1016.7
20260905062757 25 175 0.0 0.0 0.00 0.00 0.00 78 1016.9
20260905062657 25 175 0.0 0.0 0.00 0.00 0.00 78 1016.9
20260905062558 25 175 0.0 0.0 0.00 0.00 0.00 78 1016.9
20260905062458 25 175 0.0 0.0 0.00 0.00 0.00 78 1016.9
20260905062356 25 175 0.0 0.0 0.00 0.00 0.00 78 1016.9
20260905062257 25 175 0.0 0.0 0.00 0.00 0.00 78 1016.9
20260905062158 25 175 0.0 0.0 0.00 0.00 0.00 78 1016.9
20260905062057 25 175 0.0 0.0 0.00 0.00 0.00 78 1017.0
20260905061958 25 175 0.0 0.0 0.00 0.00 0.00 78 1017.0
20260905061857 25 175 0.0 0.0 0.00 0.00 0.00 78 1017.0
20260905061758 25 175 0.0 0.0 0.00 0.00 0.00 78 1017.1
20260905061656 25 175 0.0 0.0 0.00 0.00 0.00 78 1017.0
20260905061557 25 175 0.0 0.0 0.00 0.00 0.00 78 1017.7
20260905061456 25 175 0.0 0.0 0.00 0.00 0.00 78 1017.1
20260905061357 25 175 0.0 0.0 0.00 0.00 0.00 78 1017.1
20260905061257 25 175 0.0 0.0 0.00 0.00 0.00 78 1017.2
20260905061158 25 175 0.0 0.0 0.00 0.00 0.00 78 1017.1
20260905061057 25 175 0.0 0.0 0.00 0.00 0.00 78 1017.2
20260905060955 25 175 0.0 0.0 0.00 0.00 0.00 78 1017.2
20260905060856 25 175 0.0 0.0 0.00 0.00 0.00 78 1017.2
20260905060755 25 175 0.0 0.0 0.00 0.00 0.00 78 1017.2
20260905060656 25 175 0.0 0.0 0.00 0.00 0.00 78 1017.1
20260905060555 25 175 0.0 0.0 0.00 0.00 0.00 78 1017.3
20260905060457 25 175 0.0 0.0 0.00 0.00 0.00 78 1017.3
20260905060352 25 175 0.0 0.0 0.00 0.00 0.00 78 1017.2
20260905060251 26 175 0.0 0.0 0.00 0.00 0.00 78 1017.3
20260905060152 25 175 0.0 0.0 0.00 0.00 0.00 78 1017.3
20260905060052 25 175 0.0 0.0 0.00 0.00 0.00 78 1017.3
20260905055953 26 175 0.0 0.0 0.00 0.00 0.00 78 1017.3
20260905055851 25 175 0.0 0.0 0.00 0.00 0.00 78 1017.4
20260905055751 25 175 0.0 0.0 0.00 0.00 0.00 78 1017.3
20260905055651 25 175 0.0 0.0 0.00 0.00 0.00 78 1017.4
20260905055551 25 175 0.0 0.0 0.00 0.00 0.00 78 1017.4
20260905055452 25 175 0.0 0.0 0.00 0.00 0.00 78 1017.4
20260905055351 25 175 0.0 0.0 0.00 0.00 0.00 78 1017.3
20260905055252 25 175 0.0 0.0 0.00 0.00 0.00 78 1017.4
20260905055152 25 175 0.0 0.0 0.00 0.00 0.00 78 1017.4
20260905055051 26 175 0.0 0.0 0.00 0.00 0.00 78 1017.5
20260905054953 26 175 0.0 0.0 0.00 0.00 0.00 78 1017.4
20260905054851 25 175 0.0 0.0 0.00 0.00 0.00 78 1017.5
20260905054752 26 175 0.0 0.0 0.00 0.00 0.00 78 1017.4
20260905054650 25 175 0.0 0.0 0.00 0.00 0.00 78 1017.5
20260905054550 25 175 0.0 0.0 0.00 0.00 0.00 78 1017.5
20260905054452 25 175 0.0 0.0 0.00 0.00 0.00 77 1017.4
20260905054351 25 175 0.0 0.0 0.00 0.00 0.00 77 1017.6
20260905054251 25 175 0.0 0.0 0.00 0.00 0.00 77 1017.5
20260905054152 25 175 0.0 0.0 0.00 0.00 0.00 77 1017.6
20260905054052 25 175 0.0 0.0 0.00 0.00 0.00 77 1017.5
20260905053950 25 175 0.0 0.0 0.00 0.00 0.00 77 1017.6
20260905053850 25 175 0.0 0.0 0.00 0.00 0.00 77 1017.6
20260905053751 26 175 0.0 0.0 0.00 0.00 0.00 77 1017.6
20260905053651 25 175 0.0 0.0 0.00 0.00 0.00 77 1017.5
20260905053551 25 175 0.0 0.0 0.00 0.00 0.00 77 1017.6
20260905053451 26 175 0.0 0.0 0.00 0.00 0.00 77 1017.6
20260905053351 25 175 0.0 0.0 0.00 0.00 0.00 77 1017.6
20260905053252 25 175 0.0 0.0 0.00 0.00 0.00 77 1017.6
20260905053153 25 175 0.0 0.0 0.00 0.00 0.00 77 1017.5
20260905053048 26 175 0.0 0.0 0.00 0.00 0.00 77 1017.6
20260905052948 26 175 0.0 0.0 0.00 0.00 0.00 77 1017.5
20260905052848 26 175 0.0 0.0 0.00 0.00 0.00 77 1017.6
20260905052749 26 175 0.0 0.0 0.00 0.00 0.00 77 1017.6
20260905052646 26 175 0.0 0.0 0.00 0.00 0.00 77 1017.6
20260905052547 26 175 0.0 0.0 0.00 0.00 0.00 77 1017.5
20260905052445 26 175 0.0 0.0 0.00 0.00 0.00 77 1017.6
20260905052345 26 175 0.0 0.0 0.00 0.00 0.00 77 1017.5
20260905052245 26 175 0.0 0.0 0.00 0.00 0.00 77 1017.6
20260905052145 26 175 0.0 0.0 0.00 0.00 0.00 77 1017.6
20260905052046 26 175 0.0 0.0 0.00 0.00 0.00 77 1017.6
20260905051944 26 175 0.0 0.0 0.00 0.00 0.00 77 1017.7
20260905051842 26 175 0.0 0.0 0.00 0.00 0.00 77 1017.6
20260905051740 26 175 0.0 0.0 0.00 0.00 0.00 77 1017.6
20260905051639 26 175 0.0 0.0 0.00 0.00 0.00 77 1017.7
20260905051539 26 175 0.0 0.0 0.00 0.00 0.00 77 1017.7
20260905051436 26 175 0.0 0.0 0.00 0.00 0.00 77 1017.7
20260905051333 26 175 0.0 0.0 0.00 0.00 0.00 77 1017.7
20260905051230 26 175 0.0 0.0 0.00 0.00 0.00 77 1017.7
20260905051130 26 175 0.0 0.0 0.00 0.00 0.00 77 1017.7
20260905051029 26 175 0.0 0.0 0.00 0.00 0.00 77 1017.8
20260905050925 26 175 0.0 0.0 0.00 0.00 0.00 77 1017.6
20260905050821 26 175 0.0 0.0 0.00 0.00 0.00 77 1017.7
20260905050718 26 175 0.0 0.0 0.00 0.00 0.00 77 1017.7
20260905050618 26 175 0.0 0.0 0.00 0.00 0.00 77 1017.7
20260905050516 26 175 0.0 0.0 0.00 0.00 0.00 77 1017.6
20260905050412 26 175 0.0 0.0 0.00 0.00 0.00 77 1017.6
20260905050313 26 175 0.0 0.0 0.00 0.00 0.00 77 1017.7
20260905050214 26 175 0.0 0.0 0.00 0.00 0.00 77 1017.8
20260905050112 26 175 0.0 0.0 0.00 0.00 0.00 77 1017.8
20260905050012 26 175 0.0 0.0 0.00 0.00 0.00 77 1017.8
20260905045913 26 175 0.0 0.0 0.00 0.00 0.00 77 1017.7
20260905045807 26 175 0.0 0.0 0.00 0.00 0.00 77 1017.8
20260905045706 26 175 0.0 0.0 0.00 0.00 0.00 76 1017.9
20260905045606 26 175 0.0 0.0 0.00 0.00 0.00 76 1017.8
20260905045506 26 175 0.0 0.0 0.00 0.00 0.00 76 1017.8
20260905045403 26 175 0.0 0.0 0.00 0.00 0.00 76 1017.8
20260905045259 26 175 0.0 0.0 0.00 0.00 0.00 76 1017.8
20260905045156 26 175 0.0 0.0 0.00 0.00 0.00 76 1017.9
20260905045057 25 175 0.0 0.0 0.00 0.00 0.00 76 1017.9
20260905044958 26 175 0.0 0.0 0.00 0.00 0.00 75 1017.8
20260905044856 26 175 0.0 0.0 0.00 0.00 0.00 74 1017.9
20260905044757 25 175 0.0 0.0 0.00 0.00 0.00 74 1017.9
20260905044654 25 175 0.0 0.0 0.00 0.00 0.00 74 1017.9
20260905044556 26 175 0.0 0.0 0.00 0.00 0.00 74 1017.8
20260905044453 26 175 0.0 0.0 0.00 0.00 0.00 74 1017.9
20260905044352 25 175 0.0 0.0 0.00 0.00 0.00 74 1017.9
20260905044248 25 175 0.0 0.0 0.00 0.00 0.00 74 1017.9
20260905044144 26 175 0.0 0.0 0.00 0.00 0.00 74 1017.9
20260905044044 26 175 0.0 0.0 0.00 0.00 0.00 74 1017.8
20260905043942 26 175 0.0 0.0 0.00 0.00 0.00 75 1017.8
20260905043840 26 175 0.0 0.0 0.00 0.00 0.00 75 1017.8
20260905043740 26 175 0.0 0.0 0.00 0.00 0.00 75 1017.9
20260905043641 26 175 0.0 0.0 0.00 0.00 0.00 74 1017.8
20260905043541 26 175 0.0 0.0 0.00 0.00 0.00 74 1017.8
20260905043440 26 175 0.0 0.0 0.00 0.00 0.00 74 1017.8
20260905043339 26 175 0.0 0.0 0.00 0.00 0.00 74 1017.8
20260905043239 26 175 0.0 0.0 0.00 0.00 0.00 74 1017.9
20260905043138 25 175 0.0 0.0 0.00 0.00 0.00 74 1017.8
20260905043040 26 175 0.0 0.0 0.00 0.00 0.00 73 1017.8
20260905042937 26 175 0.0 0.0 0.00 0.00 0.00 73 1017.8
20260905042836 26 175 0.0 0.0 0.00 0.00 0.00 73 1017.8
20260905042735 26 175 0.0 0.0 0.00 0.00 0.00 73 1017.9
20260905042632 26 175 0.0 0.0 0.00 0.00 0.00 73 1017.9
20260905042533 26 175 0.0 0.0 0.00 0.00 0.00 73 1017.9
20260905042430 26 175 0.0 0.0 0.00 0.00 0.00 73 1017.8
20260905042331 26 175 0.0 0.0 0.00 0.00 0.00 73 1017.8
20260905042229 26 175 0.0 0.0 0.00 0.00 0.00 72 1017.8
20260905042127 26 175 0.0 0.0 0.00 0.00 0.00 72 1017.8
20260905042026 26 175 0.0 0.0 0.00 0.00 0.00 72 1017.8
20260905041925 26 175 0.0 0.0 0.00 0.00 0.00 72 1017.8
20260905041824 26 175 0.0 0.0 0.00 0.00 0.00 72 1017.9
20260905041723 26 175 0.0 0.0 0.00 0.00 0.00 72 1017.8
20260905041620 26 175 0.0 0.0 0.00 0.00 0.00 72 1017.8
20260905041520 26 175 0.0 0.0 0.00 0.00 0.00 72 1017.8
20260905041419 26 175 0.0 0.0 0.00 0.00 0.00 72 1017.8
20260905041317 26 175 0.0 0.0 0.00 0.00 0.00 72 1017.9
20260905041217 26 175 0.0 0.0 0.00 0.00 0.00 72 1017.8
20260905041114 26 175 0.0 0.0 0.00 0.00 0.00 72 1017.8
20260905041015 26 175 0.0 0.0 0.00 0.00 0.00 72 1017.9
20260905040912 26 175 0.0 0.0 0.00 0.00 0.00 72 1017.9
20260905040814 26 175 0.0 0.0 0.00 0.00 0.00 71 1017.8
20260905040712 26 175 0.0 0.0 0.00 0.00 0.00 72 1017.9
20260905040613 26 177 0.0 0.0 0.00 0.00 0.00 71 1017.8
20260905040510 26 206 0.0 0.0 0.00 0.00 0.00 71 1017.8
20260905040410 26 263 0.0 0.0 0.00 0.00 0.00 71 1017.7
20260905040312 26 263 0.0 0.0 0.00 0.00 0.00 71 1017.7
20260905040210 26 263 0.0 0.0 0.00 0.00 0.00 71 1017.8
20260905040109 26 263 0.0 0.0 0.00 0.00 0.00 70 1017.8
20260905040009 26 263 0.0 0.0 0.00 0.00 0.00 70 1017.8
20260905035909 26 263 0.0 0.0 0.00 0.00 0.00 70 1017.7
20260905035809 26 263 0.0 0.0 0.00 0.00 0.00 70 1017.7
20260905035708 26 263 0.0 0.0 0.00 0.00 0.00 70 1017.8
20260905035608 26 263 0.0 0.0 0.00 0.00 0.00 70 1017.7
20260905035508 26 263 0.0 0.0 0.00 0.00 0.00 70 1017.6
20260905035409 26 263 0.0 0.0 0.00 0.00 0.00 70 1017.7
20260905035301 26 263 0.0 0.0 0.00 0.00 0.00 70 1017.7
20260905035200 26 263 0.0 0.0 0.00 0.00 0.00 69 1017.6
20260905035101 26 263 0.0 0.0 0.00 0.00 0.00 69 1017.6
20260905035001 26 263 0.0 0.0 0.00 0.00 0.00 69 1017.6
20260905034901 26 263 0.0 0.0 0.00 0.00 0.00 68 1017.6
20260905034802 26 263 0.0 0.0 0.00 0.00 0.00 68 1017.6
20260905034701 26 263 0.0 0.0 0.00 0.00 0.00 68 1017.5
20260905034600 26 263 0.0 0.0 0.00 0.00 0.00 68 1017.6
20260905034500 26 263 0.0 0.0 0.00 0.00 0.00 68 1017.6
20260905034400 26 263 0.0 0.0 0.00 0.00 0.00 68 1017.6
20260905034300 26 263 0.0 0.0 0.00 0.00 0.00 68 1017.6
20260905034200 26 263 0.0 0.0 0.00 0.00 0.00 68 1017.6
20260905034101 26 263 0.0 0.0 0.00 0.00 0.00 68 1017.6
20260905034002 26 263 0.0 0.0 0.00 0.00 0.00 67 1017.6
20260905033900 26 263 0.0 0.0 0.00 0.00 0.00 67 1017.6
20260905033802 26 263 0.0 0.0 0.00 0.00 0.00 67 1017.5
20260905033701 26 263 0.0 0.0 0.00 0.00 0.00 67 1017.6
20260905033602 26 263 0.0 0.0 0.00 0.00 0.00 67 1017.6
20260905033500 26 263 0.0 0.0 0.00 0.00 0.00 67 1017.5
20260905033402 26 263 0.0 0.0 0.00 0.00 0.00 67 1017.5
20260905033301 26 263 0.0 0.0 0.00 0.00 0.00 67 1017.5
20260905033200 26 263 0.0 0.0 0.00 0.00 0.00 67 1017.5
20260905033101 26 263 0.0 0.0 0.00 0.00 0.00 67 1017.5
20260905033000 26 263 0.0 0.0 0.00 0.00 0.00 67 1017.5
20260905032901 26 263 0.0 0.0 0.00 0.00 0.00 67 1017.5
20260905032801 26 263 0.0 0.0 0.00 0.00 0.00 67 1017.4
20260905032701 26 263 0.0 0.0 0.00 0.00 0.00 68 1017.4
20260905032601 26 263 0.0 0.0 0.00 0.00 0.00 68 1017.5
20260905032500 26 263 0.0 0.0 0.00 0.00 0.00 68 1017.4
20260905032400 26 263 0.0 0.0 0.00 0.00 0.00 68 1017.4
20260905032301 26 263 0.0 0.0 0.00 0.00 0.00 68 1017.5
20260905032201 26 263 0.0 0.0 0.00 0.00 0.00 68 1017.4
20260905032101 26 263 0.0 0.0 0.00 0.00 0.00 68 1017.4
20260905031958 26 263 0.0 0.0 0.00 0.00 0.00 68 1017.4
20260905031857 26 263 0.0 0.0 0.00 0.00 0.00 67 1017.4
20260905031758 26 263 0.0 0.0 0.00 0.00 0.00 67 1017.3
20260905031656 26 263 0.0 0.0 0.00 0.00 0.00 67 1017.3
20260905031557 26 263 0.0 0.0 0.00 0.00 0.00 67 1017.3
20260905031457 26 263 0.0 0.0 0.00 0.00 0.00 67 1017.3
20260905031357 26 263 0.0 0.0 0.00 0.00 0.00 67 1017.3
20260905031256 26 263 0.0 0.0 0.00 0.00 0.00 68 1017.4
20260905031157 26 263 0.0 0.0 0.00 0.00 0.00 68 1017.4
20260905031056 26 263 0.0 0.0 0.00 0.00 0.00 67 1017.4
20260905030956 26 263 0.0 0.0 0.00 0.00 0.00 67 1017.3
20260905030857 26 263 0.0 0.0 0.00 0.00 0.00 67 1017.4
20260905030756 26 263 0.0 0.0 0.00 0.00 0.00 67 1017.4
20260905030658 26 263 0.0 0.0 0.00 0.00 0.00 67 1017.4
20260905030558 26 263 0.0 0.0 0.00 0.00 0.00 67 1017.4
20260905030456 26 263 0.0 0.0 0.00 0.00 0.00 68 1017.4
20260905030358 26 263 0.0 0.0 0.00 0.00 0.00 67 1017.4
20260905030258 26 263 0.0 0.0 0.00 0.00 0.00 67 1017.3
20260905030157 26 263 0.0 0.0 0.00 0.00 0.00 67 1017.3
20260905030058 26 263 0.0 0.0 0.00 0.00 0.00 67 1017.4
20260905025956 26 263 0.0 0.0 0.00 0.00 0.00 67 1017.3
20260905025858 26 263 0.0 0.0 0.00 0.00 0.00 67 1017.2
20260905025758 26 263 0.0 0.0 0.00 0.00 0.00 67 1017.2
20260905025657 26 263 0.0 0.0 0.00 0.00 0.00 67 1017.1
20260905025557 26 263 0.0 0.0 0.00 0.00 0.00 67 1017.2
20260905025457 26 263 0.0 0.0 0.00 0.00 0.00 66 1017.3
20260905025353 26 263 0.0 0.0 0.00 0.00 0.00 66 1017.2
20260905025254 26 263 0.0 0.0 0.00 0.00 0.00 66 1017.3
20260905025152 26 263 0.0 0.0 0.00 0.00 0.00 66 1017.2
20260905025054 26 263 0.0 0.0 0.00 0.00 0.00 66 1017.2
20260905024952 26 263 0.0 0.0 0.00 0.00 0.00 66 1017.3
20260905024852 26 263 0.0 0.0 0.00 0.00 0.00 65 1017.3
20260905024751 26 263 0.0 0.0 0.00 0.00 0.00 65 1017.3
20260905024651 26 263 0.0 0.0 0.00 0.00 0.00 65 1017.3
20260905024552 26 263 0.0 0.0 0.00 0.00 0.00 65 1017.3
20260905024451 26 263 0.0 0.0 0.00 0.00 0.00 65 1017.3
20260905024351 26 263 0.0 0.0 0.00 0.00 0.00 65 1017.2
20260905024251 26 263 0.0 0.0 0.00 0.00 0.00 65 1017.2
20260905024148 26 263 0.0 0.0 0.00 0.00 0.00 65 1017.2
20260905024047 26 263 0.0 0.0 0.00 0.00 0.00 64 1017.1
20260905023948 26 263 0.0 0.0 0.00 0.00 0.00 65 1017.2
20260905023846 26 263 0.0 0.0 0.00 0.00 0.00 65 1017.1
20260905023743 26 263 0.0 0.0 0.00 0.00 0.00 65 1017.1
20260905023643 26 263 0.0 0.0 0.00 0.00 0.00 65 1017.1
20260905023541 26 263 0.0 0.0 0.00 0.00 0.00 65 1017.1
20260905023438 26 263 0.0 0.0 0.00 0.00 0.00 65 1017.1
20260905023338 26 263 0.0 0.0 0.00 0.00 0.00 65 1017.1
20260905023240 26 263 0.0 0.0 0.00 0.00 0.00 65 1017.0
20260905023136 26 263 0.0 0.0 0.00 0.00 0.00 65 1017.1
20260905023036 26 263 0.0 0.0 0.00 0.00 0.00 65 1017.0
20260905022934 26 263 0.0 0.0 0.00 0.00 0.00 65 1017.0
20260905022834 26 263 0.0 0.0 0.00 0.00 0.00 64 1017.0
20260905022733 26 263 0.0 0.0 0.00 0.00 0.00 65 1017.0
20260905022634 26 263 0.0 0.0 0.00 0.00 0.00 64 1017.0
20260905022533 26 263 0.0 0.0 0.00 0.00 0.00 65 1017.0
20260905022431 26 263 0.0 0.0 0.00 0.00 0.00 65 1017.0
20260905022330 26 263 0.0 0.0 0.00 0.00 0.00 65 1017.0
20260905022230 26 263 0.0 0.0 0.00 0.00 0.00 65 1017.0
20260905022130 26 263 0.0 0.0 0.00 0.00 0.00 65 1017.0
20260905022026 26 263 0.0 0.0 0.00 0.00 0.00 65 1017.0
20260905021927 26 263 0.0 0.0 0.00 0.00 0.00 65 1017.0
20260905021824 26 263 0.0 0.0 0.00 0.00 0.00 65 1017.0
20260905021726 26 263 0.0 0.0 0.00 0.00 0.00 66 1017.1
20260905021622 26 263 0.0 0.0 0.00 0.00 0.00 65 1017.0
20260905021525 26 263 0.0 0.0 0.00 0.00 0.00 65 1017.0
20260905021421 26 263 0.0 0.0 0.00 0.00 0.00 65 1016.9
20260905021321 26 263 0.0 0.0 0.00 0.00 0.00 65 1016.9
20260905021220 26 263 0.0 0.0 0.00 0.00 0.00 65 1017.0
20260905021121 26 263 0.0 0.0 0.00 0.00 0.00 65 1016.9
20260905021025 26 263 0.0 0.0 0.00 0.00 0.00 65 1016.9
20260905020916 26 263 0.0 0.0 0.00 0.00 0.00 65 1016.9
20260905020816 26 263 0.0 0.0 0.00 0.00 0.00 65 1017.0
20260905020715 26 263 0.0 0.0 0.00 0.00 0.00 65 1016.9
20260905020613 26 263 0.0 0.0 0.00 0.00 0.00 65 1017.0
20260905020510 26 263 0.0 0.0 0.00 0.00 0.00 65 1017.0
20260905020407 26 263 0.0 0.0 0.00 0.00 0.00 65 1017.0
20260905020308 26 263 0.0 0.0 0.00 0.00 0.00 65 1017.0
20260905020207 26 263 0.0 0.0 0.00 0.00 0.00 65 1017.1
20260905020107 26 263 0.0 0.0 0.00 0.00 0.00 65 1017.0
20260905020004 26 263 0.0 0.0 0.00 0.00 0.00 65 1017.0
20260905015903 26 263 0.0 0.0 0.00 0.00 0.00 66 1017.0
20260905015802 26 263 0.0 0.0 0.00 0.00 0.00 65 1017.1
20260905015703 26 263 0.0 0.0 0.00 0.00 0.00 66 1017.1
20260905015601 26 263 0.0 0.0 0.00 0.00 0.00 66 1017.1
20260905015459 26 263 0.0 0.0 0.00 0.00 0.00 65 1017.1
20260905015355 26 263 0.0 0.0 0.00 0.00 0.00 66 1017.2
20260905015254 26 263 0.0 0.0 0.00 0.00 0.00 66 1017.2
20260905015153 26 263 0.0 0.0 0.00 0.00 0.00 66 1017.2
20260905015050 26 263 0.0 0.0 0.00 0.00 0.00 66 1017.3
20260905014948 26 263 0.0 0.0 0.00 0.00 0.00 66 1017.1
20260905014846 26 263 0.0 0.0 0.00 0.00 0.00 66 1017.1
20260905014744 26 263 0.0 0.0 0.00 0.00 0.00 66 1017.2
20260905014644 26 263 0.0 0.0 0.00 0.00 0.00 66 1017.1
20260905014544 26 263 0.0 0.0 0.00 0.00 0.00 66 1017.2
20260905014440 26 263 0.0 0.0 0.00 0.00 0.00 66 1017.2
20260905014337 26 263 0.0 0.0 0.00 0.00 0.00 66 1017.2
20260905014234 26 263 0.0 0.0 0.00 0.00 0.00 66 1017.1
20260905014136 26 263 0.0 0.0 0.00 0.00 0.00 66 1017.1
20260905014033 26 263 0.0 0.0 0.00 0.00 0.00 66 1017.1
20260905013932 26 263 0.0 0.0 0.00 0.00 0.00 66 1017.1
20260905013833 26 263 0.0 0.0 0.00 0.00 0.00 66 1017.1
20260905013731 26 263 0.0 0.0 0.00 0.00 0.00 66 1017.1
20260905013631 26 263 0.0 0.0 0.00 0.00 0.00 66 1017.1
20260905013528 26 263 0.0 0.0 0.00 0.00 0.00 66 1017.0
20260905013429 26 263 0.0 0.0 0.00 0.00 0.00 66 1017.1
20260905013326 26 263 0.0 0.0 0.00 0.00 0.00 66 1017.0
20260905013223 26 262 0.0 0.0 0.00 0.00 0.00 66 1017.1
20260905013125 26 263 0.0 0.0 0.00 0.00 0.00 66 1017.1
20260905013023 26 263 0.0 0.0 0.00 0.00 0.00 66 1017.1
20260905012923 26 263 0.0 0.0 0.00 0.00 0.00 66 1017.1
20260905012823 26 263 0.0 1.6 0.00 0.00 0.00 66 1017.1
20260905012722 26 262 0.0 1.6 0.00 0.00 0.00 66 1017.1
20260905012620 26 263 0.0 1.6 0.00 0.00 0.00 67 1017.1
20260905012521 26 262 0.0 1.6 0.00 0.00 0.00 67 1017.2
20260905012420 26 262 0.0 1.6 0.00 0.00 0.00 67 1017.2
20260905012319 26 261 0.0 1.6 0.00 0.00 0.00 67 1017.2
20260905012217 26 261 0.0 1.6 0.00 0.00 0.00 68 1017.4
20260905012116 26 261 0.0 1.6 0.00 0.00 0.00 67 1017.4
20260905012015 26 261 0.0 1.6 0.00 0.00 0.00 67 1017.5
20260905011916 26 261 0.0 1.6 0.00 0.00 0.00 68 1017.4
20260905011813 26 261 0.0 1.6 0.00 0.00 0.00 69 1017.4
20260905011711 26 261 0.0 1.6 0.00 0.00 0.00 69 1017.4
20260905011611 26 263 0.0 1.6 0.00 0.00 0.00 69 1017.4
20260905011511 26 271 0.0 0.0 0.00 0.00 0.00 70 1017.4
20260905011411 26 272 0.0 0.0 0.00 0.00 0.00 70 1017.4
20260905011312 26 271 0.0 0.0 0.00 0.00 0.00 71 1017.4
20260905011210 26 272 0.0 0.0 0.00 0.00 0.00 71 1017.4
20260905011111 26 272 0.0 0.0 0.00 0.00 0.00 71 1017.4
20260905011009 26 272 0.0 0.0 0.00 0.00 0.00 71 1017.4
20260905010908 26 272 0.0 0.0 0.00 0.00 0.00 71 1017.4
20260905010808 26 272 0.0 0.0 0.00 0.00 0.00 71 1017.4
20260905010705 26 272 0.0 0.0 0.00 0.00 0.00 71 1017.4
20260905010603 26 272 0.0 0.0 0.00 0.00 0.00 71 1017.3
20260905010502 26 272 0.0 0.0 0.00 0.00 0.00 71 1017.3
20260905010403 26 261 0.0 0.0 0.00 0.00 0.00 71 1017.4
20260905010301 26 268 0.0 0.0 0.00 0.00 0.00 72 1017.4
20260905010201 26 269 0.0 1.6 0.00 0.00 0.00 72 1017.4
20260905010000 26 270 0.0 3.2 0.00 0.00 0.00 72 1017.4
20260905005901 26 270 0.0 3.2 0.00 0.00 0.00 72 1017.4
20260905005758 26 271 0.0 3.2 0.00 0.00 0.00 72 1017.4
20260905005658 26 271 0.0 3.2 0.00 0.00 0.00 72 1017.5
20260905005558 26 271 0.0 3.2 0.00 0.00 0.00 72 1017.5
20260905005455 26 271 0.0 3.2 0.00 0.00 0.00 71 1017.6
20260905005355 26 271 0.0 3.2 0.00 0.00 0.00 70 1017.7
20260905005253 26 271 0.0 3.2 0.00 0.00 0.00 71 1017.7
20260905005153 26 269 0.0 3.2 0.00 0.00 0.00 71 1017.7
20260905005051 26 269 0.0 3.2 0.00 0.00 0.00 72 1017.7
20260905004948 26 268 0.0 0.0 0.00 0.00 0.00 72 1017.6
20260905004846 26 269 0.0 0.0 0.00 0.00 0.00 72 1017.6
20260905004745 26 270 0.0 0.0 0.00 0.00 0.00 72 1017.6
20260905004643 26 269 0.0 0.0 0.00 0.00 0.00 72 1017.7
20260905004543 26 270 0.0 0.0 0.00 0.00 0.00 72 1017.6
20260905004439 26 270 0.0 0.0 0.00 0.00 0.00 72 1017.6
20260905004341 26 270 0.0 0.0 0.00 0.00 0.00 72 1017.6
20260905004242 26 270 0.0 0.0 0.00 0.00 0.00 72 1017.6
20260905004140 26 270 0.0 1.6 0.00 0.00 0.00 71 1017.6
20260905004040 26 270 0.0 4.8 0.00 0.00 0.00 71 1017.5
20260905003940 26 270 0.0 4.8 0.00 0.00 0.00 71 1017.6
20260905003840 26 270 0.0 4.8 0.00 0.00 0.00 71 1017.6
20260905003739 26 270 0.0 4.8 0.00 0.00 0.00 70 1017.6
20260905003639 26 271 0.0 4.8 0.00 0.00 0.00 71 1017.6
20260905003538 26 271 0.0 4.8 0.00 0.00 0.00 70 1017.6
20260905003435 26 271 0.0 4.8 0.00 0.00 0.00 70 1017.7
20260905003327 26 271 0.0 4.8 0.00 0.00 0.00 70 1017.6
20260905003226 26 273 0.0 4.8 0.00 0.00 0.00 70 1017.6
20260905003124 26 273 0.0 0.0 0.00 0.00 0.00 70 1017.6
20260905003025 26 273 0.0 1.6 0.00 0.00 0.00 70 1017.7
20260905002925 26 273 0.0 3.2 0.00 0.00 0.00 70 1017.6
20260905002825 26 273 0.0 4.8 0.00 0.00 0.00 70 1017.6
20260905002722 26 273 0.0 4.8 0.00 0.00 0.00 70 1017.6
20260905002624 26 273 0.0 4.8 0.00 0.00 0.00 70 1017.6
20260905002520 26 273 1.6 6.4 0.00 0.00 0.00 70 1017.7
20260905002418 26 273 1.6 6.4 0.00 0.00 0.00 69 1017.7
20260905002318 26 273 1.6 6.4 0.00 0.00 0.00 69 1017.7
20260905002218 26 273 1.6 6.4 0.00 0.00 0.00 70 1017.8
20260905002116 26 273 1.6 6.4 0.00 0.00 0.00 69 1017.7
20260905002016 26 273 1.6 6.4 0.00 0.00 0.00 69 1017.7
20260905001912 26 273 1.6 6.4 0.00 0.00 0.00 69 1017.6
20260905001802 26 275 1.6 6.4 0.00 0.00 0.00 69 1017.6
20260905001703 26 276 0.0 6.4 0.00 0.00 0.00 69 1017.5
20260905001603 26 275 0.0 6.4 0.00 0.00 0.00 69 1017.5
20260905001504 26 280 0.0 6.4 0.00 0.00 0.00 69 1017.6
20260905001400 26 280 0.0 6.4 0.00 0.00 0.00 69 1017.7
20260905001256 26 279 0.0 6.4 0.00 0.00 0.00 69 1017.6
20260905001155 26 278 0.0 6.4 0.00 0.00 0.00 69 1017.6
20260905001055 26 276 0.0 6.4 0.00 0.00 0.00 70 1017.6
20260905000954 26 275 0.0 6.4 0.00 0.00 0.00 70 1017.6
20260905000855 26 272 0.0 3.2 0.00 0.00 0.00 70 1017.5
20260905000753 26 272 0.0 3.2 0.00 0.00 0.00 70 1017.5
20260905000653 26 271 0.0 3.2 0.00 0.00 0.00 70 1017.5
20260905000552 26 271 0.0 3.2 0.00 0.00 0.00 70 1017.5
20260905000454 26 271 0.0 3.2 0.00 0.00 0.00 70 1017.5
20260905000349 26 273 0.0 4.8 0.00 0.00 0.00 70 1017.5
20260905000241 26 273 0.0 4.8 0.00 0.00 0.00 70 1017.6
20260905000139 26 271 1.6 6.4 0.00 0.00 0.00 70 1017.5
20260905000040 26 273 1.6 6.4 0.00 0.00 0.00 70 1017.5
20260904235938 26 273 1.6 6.4 0.00 0.00 0.00 70 1017.6
20260904235838 26 273 1.6 6.4 0.00 0.00 0.00 70 1017.5
20260904235736 26 273 1.6 6.4 0.00 0.00 0.00 70 1017.6
20260904235633 26 273 1.6 6.4 0.00 0.00 0.00 70 1017.5
20260904235532 26 273 1.6 6.4 0.00 0.00 0.00 70 1017.6
20260904235433 26 278 1.6 6.4 0.00 0.00 0.00 71 1017.6
20260904235333 26 280 0.0 6.4 0.00 0.00 0.00 71 1017.5
20260904235229 26 282 0.0 6.4 0.00 0.00 0.00 71 1017.6
20260904235126 26 282 0.0 6.4 0.00 0.00 0.00 71 1017.5
20260904235027 26 273 0.0 6.4 0.00 0.00 0.00 72 1017.5
20260904234926 26 272 0.0 6.4 0.00 0.00 0.00 72 1017.5
20260904234827 26 272 0.0 1.6 0.00 0.00 0.00 72 1017.6
20260904234720 26 272 0.0 1.6 0.00 0.00 0.00 72 1017.6
20260904234620 26 273 0.0 1.6 0.00 0.00 0.00 73 1017.6
20260904234518 26 300 0.0 0.0 0.00 0.00 0.00 73 1017.7
20260904234419 26 300 0.0 0.0 0.00 0.00 0.00 73 1017.6
20260904234317 26 301 0.0 0.0 0.00 0.00 0.00 73 1017.6
20260904234215 26 301 0.0 0.0 0.00 0.00 0.00 74 1017.6
20260904234114 26 301 0.0 0.0 0.00 0.00 0.00 74 1017.6
20260904234014 26 301 0.0 0.0 0.00 0.00 0.00 74 1017.6
20260904233913 26 301 0.0 0.0 0.00 0.00 0.00 75 1017.7
20260904233810 26 303 0.0 0.0 0.00 0.00 0.00 74 1017.7
20260904233705 26 303 0.0 0.0 0.00 0.00 0.00 74 1017.7
20260904233606 26 304 1.6 6.4 0.00 0.00 0.00 75 1017.7
20260904233505 26 304 1.6 6.4 0.00 0.00 0.00 74 1017.7
20260904233404 26 304 1.6 6.4 0.00 0.00 0.00 74 1017.6
20260904233305 26 304 3.2 6.4 0.00 0.00 0.00 74 1017.7
20260904233159 26 304 3.2 6.4 0.00 0.00 0.00 73 1017.7
20260904233057 26 304 3.2 8.0 0.00 0.00 0.00 74 1017.7
20260904232959 26 304 3.2 8.0 0.00 0.00 0.00 73 1017.7
20260904232857 26 304 4.8 8.0 0.00 0.00 0.00 73 1017.7
20260904232755 26 305 4.8 8.0 0.00 0.00 0.00 74 1017.6
20260904232655 26 306 4.8 8.0 0.00 0.00 0.00 74 1017.7
20260904232552 26 306 6.4 8.0 0.00 0.00 0.00 73 1017.7
20260904232454 26 306 6.4 11.3 0.00 0.00 0.00 73 1017.7
20260904232351 26 309 6.4 11.3 0.00 0.00 0.00 73 1017.7
20260904232249 26 309 6.4 11.3 0.00 0.00 0.00 73 1017.7
20260904232148 26 309 6.4 11.3 0.00 0.00 0.00 73 1017.6
20260904232047 26 309 6.4 11.3 0.00 0.00 0.00 73 1017.6
20260904231946 26 310 6.4 11.3 0.00 0.00 0.00 72 1017.6
20260904231845 26 309 6.4 11.3 0.00 0.00 0.00 73 1017.6
20260904231743 26 309 6.4 11.3 0.00 0.00 0.00 73 1017.6
20260904231636 26 298 6.4 11.3 0.00 0.00 0.00 72 1017.7
20260904231533 26 325 4.8 11.3 0.00 0.00 0.00 72 1017.7
20260904231433 26 301 4.8 9.7 0.00 0.00 0.00 72 1017.6
20260904231334 26 277 4.8 9.7 0.00 0.00 0.00 72 1017.6
20260904231233 26 277 4.8 9.7 0.00 0.00 0.00 71 1017.5
20260904231128 26 277 4.8 9.7 0.00 0.00 0.00 71 1017.4
20260904231026 26 276 4.8 9.7 0.00 0.00 0.00 72 1017.4
20260904230926 26 274 4.8 6.4 0.00 0.00 0.00 72 1017.4
20260904230826 26 273 4.8 6.4 0.00 0.00 0.00 72 1017.5
20260904230726 26 295 4.8 6.4 0.00 0.00 0.00 73 1017.4
20260904230626 26 304 4.8 6.4 0.00 0.00 0.00 73 1017.4
20260904230525 26 306 4.8 6.4 0.00 0.00 0.00 73 1017.4
20260904230422 26 307 4.8 6.4 0.00 0.00 0.00 73 1017.3
20260904230323 26 308 4.8 6.4 0.00 0.00 0.00 73 1017.3
20260904230220 26 308 4.8 6.4 0.00 0.00 0.00 73 1017.4
20260904230114 26 308 4.8 6.4 0.00 0.00 0.00 74 1017.3
20260904230014 26 308 4.8 6.4 0.00 0.00 0.00 73 1017.3
20260904225913 26 309 3.2 6.4 0.00 0.00 0.00 73 1017.3
20260904225813 26 309 3.2 6.4 0.00 0.00 0.00 73 1017.3
20260904225710 26 310 3.2 6.4 0.00 0.00 0.00 73 1017.4
20260904225604 26 310 3.2 6.4 0.00 0.00 0.00 73 1017.3
20260904225503 26 310 3.2 6.4 0.00 0.00 0.00 74 1017.5
20260904225404 26 310 3.2 6.4 0.00 0.00 0.00 74 1017.5
20260904225306 26 309 3.2 6.4 0.00 0.00 0.00 75 1017.4
20260904225205 26 309 3.2 6.4 0.00 0.00 0.00 74 1017.4
20260904225058 26 309 3.2 6.4 0.00 0.00 0.00 74 1017.3
20260904224958 26 309 3.2 6.4 0.00 0.00 0.00 75 1017.1
20260904224859 26 309 3.2 6.4 0.00 0.00 0.00 76 1017.3
20260904224758 26 305 4.8 6.4 0.00 0.00 0.00 76 1017.3
20260904224658 26 305 3.2 6.4 0.00 0.00 0.00 76 1017.3
20260904224550 26 305 3.2 6.4 0.00 0.00 0.00 77 1017.3
20260904224451 26 304 3.2 6.4 0.00 0.00 0.00 76 1017.4
20260904224351 26 303 3.2 6.4 0.00 0.00 0.00 75 1017.3
20260904224251 26 304 3.2 6.4 0.00 0.00 0.00 74 1017.3
20260904224149 26 305 3.2 6.4 0.00 0.00 0.00 74 1017.3
20260904224046 26 252 4.8 11.3 0.00 0.00 0.00 74 1017.3
20260904223947 26 306 4.8 11.3 0.00 0.00 0.00 74 1017.3
20260904223846 25 306 4.8 12.9 0.00 0.00 0.00 74 1017.3
20260904223745 25 306 4.8 12.9 0.00 0.00 0.00 74 1017.3
20260904223643 25 292 6.4 12.9 0.00 0.00 0.00 74 1017.4
20260904223543 25 292 6.4 12.9 0.00 0.00 0.00 76 1017.3
20260904223440 25 292 6.4 12.9 0.00 0.00 0.00 76 1017.4
20260904223340 25 292 6.4 12.9 0.00 0.00 0.00 75 1017.4
20260904223240 25 296 6.4 12.9 0.00 0.00 0.00 76 1017.5
20260904223137 25 311 6.4 12.9 0.00 0.00 0.00 76 1017.6
20260904223027 25 309 6.4 12.9 0.00 0.00 0.00 76 1017.6
20260904222926 25 298 6.4 12.9 0.00 0.00 0.00 77 1017.5
20260904222827 25 299 6.4 12.9 0.00 0.00 0.00 78 1017.5
20260904222728 25 282 6.4 11.3 0.00 0.00 0.00 79 1017.5
20260904222627 25 282 4.8 11.3 0.00 0.00 0.00 79 1017.4
20260904222522 25 276 4.8 11.3 0.00 0.00 0.00 78 1017.5
20260904222421 25 247 6.4 11.3 0.00 0.00 0.00 78 1017.6
20260904222320 25 252 4.8 11.3 0.00 0.00 0.00 78 1017.6
20260904222221 26 259 4.8 11.3 0.00 0.00 0.00 77 1017.5
20260904222121 26 302 4.8 9.7 0.00 0.00 0.00 78 1017.6
20260904222015 26 318 4.8 9.7 0.00 0.00 0.00 77 1017.7
20260904221914 26 315 4.8 14.5 0.00 0.00 0.00 76 1017.6
20260904221815 26 317 4.8 14.5 0.00 0.00 0.00 76 1017.6
20260904221713 26 317 4.8 19.3 0.00 0.00 0.00 76 1017.6
20260904221614 26 311 8.0 19.3 0.00 0.00 0.00 76 1017.8
20260904221506 26 310 8.0 20.9 0.00 0.00 0.00 75 1017.8
20260904221406 26 24 9.7 29.0 0.00 0.00 0.00 75 1017.8
20260904221306 26 329 9.7 29.0 0.00 0.00 0.00 75 1017.9
20260904221208 27 325 9.7 29.0 0.00 0.00 0.00 75 1017.9
20260904221105 27 5 9.7 29.0 0.00 0.00 0.00 75 1018.0
20260904221001 27 317 8.0 29.0 0.00 0.00 0.00 74 1018.1
20260904220900 27 329 8.0 29.0 0.00 0.00 0.00 73 1018.1
20260904220800 27 337 6.4 29.0 0.00 0.00 0.00 73 1018.0
20260904220701 28 346 4.8 29.0 0.00 0.00 0.00 73 1017.9
20260904220558 28 313 3.2 29.0 0.00 0.00 0.00 74 1018.0
20260904220455 28 350 1.6 29.0 0.00 0.00 0.00 76 1017.9
20260904220356 28 344 0.0 14.5 0.00 0.00 0.00 76 1017.9
20260904220255 28 14 0.0 11.3 0.00 0.00 0.00 74 1017.8
20260904220154 28 97 0.0 0.0 0.00 0.00 0.00 75 1017.7
20260904220052 29 97 0.0 0.0 0.00 0.00 0.00 75 1017.7
20260904215946 29 97 0.0 0.0 0.00 0.00 0.00 75 1017.5
20260904215847 29 97 0.0 0.0 0.00 0.00 0.00 75 1017.6
20260904215746 29 97 0.0 0.0 0.00 0.00 0.00 75 1017.6
20260904215644 29 97 0.0 0.0 0.00 0.00 0.00 76 1017.6
20260904215543 29 97 0.0 0.0 0.00 0.00 0.00 76 1017.6
20260904215443 29 97 0.0 0.0 0.00 0.00 0.00 74 1017.6
20260904215341 29 97 0.0 0.0 0.00 0.00 0.00 75 1017.6
20260904215238 29 97 0.0 0.0 0.00 0.00 0.00 75 1017.7
20260904215139 29 97 0.0 0.0 0.00 0.00 0.00 75 1017.6
20260904215037 29 97 0.0 0.0 0.00 0.00 0.00 75 1017.7
20260904214932 29 97 0.0 0.0 0.00 0.00 0.00 74 1017.6
20260904214833 29 97 0.0 0.0 0.00 0.00 0.00 74 1017.7
20260904214732 29 97 0.0 0.0 0.00 0.00 0.00 75 1017.6
20260904214632 29 97 0.0 0.0 0.00 0.00 0.00 75 1017.7
20260904214530 29 97 0.0 0.0 0.00 0.00 0.00 75 1017.7
20260904214426 29 97 0.0 0.0 0.00 0.00 0.00 76 1017.7
20260904214324 29 97 0.0 0.0 0.00 0.00 0.00 75 1017.7
20260904214223 28 97 0.0 0.0 0.00 0.00 0.00 72 1017.7
20260904214123 28 97 0.0 0.0 0.00 0.00 0.00 72 1017.7
20260904214021 28 97 0.0 0.0 0.00 0.00 0.00 71 1017.6
20260904213922 28 97 0.0 0.0 0.00 0.00 0.00 72 1017.7
20260904213819 28 97 0.0 0.0 0.00 0.00 0.00 73 1017.6
20260904213718 28 97 0.0 0.0 0.00 0.00 0.00 75 1017.6
20260904213616 28 97 0.0 0.0 0.00 0.00 0.00 75 1017.5
20260904213514 28 97 0.0 0.0 0.00 0.00 0.00 74 1017.5
20260904213414 28 97 0.0 0.0 0.00 0.00 0.00 74 1017.5
20260904213314 28 97 0.0 0.0 0.00 0.00 0.00 73 1017.5
20260904213212 28 97 0.0 0.0 0.00 0.00 0.00 73 1017.5
20260904213111 28 97 0.0 0.0 0.00 0.00 0.00 74 1017.6
20260904213009 28 97 0.0 0.0 0.00 0.00 0.00 73 1017.5
20260904212859 28 97 0.0 0.0 0.00 0.00 0.00 74 1017.5
20260904212759 28 97 0.0 0.0 0.00 0.00 0.00 73 1017.5
20260904212659 28 97 0.0 0.0 0.00 0.00 0.00 74 1017.5
20260904212601 28 19 0.0 0.0 0.00 0.00 0.00 73 1017.5
20260904212500 28 18 0.0 0.0 0.00 0.00 0.00 73 1017.5
20260904212359 28 13 0.0 1.6 0.00 0.00 0.00 71 1017.6
20260904212257 28 13 1.6 4.8 0.00 0.00 0.00 73 1017.6
20260904212155 28 13 1.6 6.4 0.00 0.00 0.00 74 1017.6
20260904212055 28 13 1.6 6.4 0.00 0.00 0.00 73 1017.5
20260904211953 28 13 1.6 6.4 0.00 0.00 0.00 73 1017.5
20260904211849 28 13 1.6 6.4 0.00 0.00 0.00 71 1017.4
20260904211745 28 13 1.6 6.4 0.00 0.00 0.00 75 1017.6
20260904211647 28 13 1.6 6.4 0.00 0.00 0.00 76 1017.5
20260904211547 28 13 1.6 6.4 0.00 0.00 0.00 75 1017.5
20260904211447 28 13 1.6 6.4 0.00 0.00 0.00 74 1017.6
20260904211337 28 13 1.6 6.4 0.00 0.00 0.00 75 1017.6
20260904211238 28 5 1.6 8.0 0.00 0.00 0.00 76 1017.6
20260904211139 28 308 3.2 12.9 0.00 0.00 0.00 74 1017.5
20260904211038 28 307 3.2 12.9 0.00 0.00 0.00 74 1017.6
20260904210937 28 307 4.8 14.5 0.00 0.00 0.00 75 1017.6
20260904210835 28 307 4.8 14.5 0.00 0.00 0.00 76 1017.4
20260904210734 28 307 6.4 14.5 0.00 0.00 0.00 76 1017.5
20260904210632 28 307 6.4 14.5 0.00 0.00 0.00 76 1017.6
20260904210533 28 355 6.4 14.5 0.00 0.00 0.00 76 1017.5
20260904210431 28 355 6.4 14.5 0.00 0.00 0.00 76 1017.5
20260904210325 28 355 6.4 14.5 0.00 0.00 0.00 75 1017.5
20260904210226 28 342 6.4 14.5 0.00 0.00 0.00 75 1017.5
20260904210124 28 326 6.4 14.5 0.00 0.00 0.00 76 1017.4
20260904210024 28 325 4.8 14.5 0.00 0.00 0.00 76 1017.4
20260904205924 28 331 4.8 14.5 0.00 0.00 0.00 76 1017.3
20260904205815 28 326 4.8 12.9 0.00 0.00 0.00 76 1017.2
20260904205714 28 355 4.8 12.9 0.00 0.00 0.00 75 1017.1
20260904205615 28 343 4.8 12.9 0.00 0.00 0.00 75 1017.1
20260904205514 28 342 6.4 12.9 0.00 0.00 0.00 76 1017.0
20260904205414 28 346 6.4 12.9 0.00 0.00 0.00 76 1017.1
20260904205308 28 310 6.4 12.9 0.00 0.00 0.00 76 1017.2
20260904205208 28 310 6.4 12.9 0.00 0.00 0.00 76 1017.2
20260904205108 28 338 6.4 12.9 0.00 0.00 0.00 77 1017.2
20260904205008 28 346 6.4 12.9 0.00 0.00 0.00 77 1017.3
20260904204909 28 318 6.4 12.9 0.00 0.00 0.00 76 1017.5
20260904204802 28 344 6.4 12.9 0.00 0.00 0.00 76 1017.5
20260904204702 28 346 6.4 12.9 0.00 0.00 0.00 75 1017.5
20260904204603 28 355 6.4 12.9 0.00 0.00 0.00 76 1017.6
20260904204502 28 313 8.0 14.5 0.00 0.00 0.00 75 1017.6
20260904204402 28 294 8.0 14.5 0.00 0.00 0.00 75 1017.6
20260904204253 28 312 6.4 14.5 0.00 0.00 0.00 77 1017.6
20260904204152 28 295 6.4 14.5 0.00 0.00 0.00 75 1017.7
20260904204053 27 326 6.4 14.5 0.00 0.00 0.00 75 1017.7
20260904203951 27 335 6.4 14.5 0.00 0.00 0.00 75 1017.8
20260904203853 28 322 8.0 14.5 0.00 0.00 0.00 75 1017.9
20260904203746 28 351 8.0 16.1 0.00 0.00 0.00 74 1018.0
20260904203646 28 338 8.0 16.1 0.00 0.00 0.00 74 1017.9
20260904203547 28 338 8.0 16.1 0.00 0.00 0.00 74 1017.9
20260904203447 28 348 6.4 16.1 0.00 0.00 0.00 74 1017.9
20260904203347 28 340 6.4 16.1 0.00 0.00 0.00 74 1017.8
20260904203243 28 346 6.4 16.1 0.00 0.00 0.00 73 1017.8
20260904203140 28 41 8.0 16.1 0.00 0.00 0.00 74 1017.8
20260904203042 28 350 8.0 16.1 0.00 0.00 0.00 73 1017.8
20260904202940 28 338 8.0 16.1 0.00 0.00 0.00 73 1017.8
20260904202841 28 324 8.0 16.1 0.00 0.00 0.00 72 1017.8
20260904202733 28 336 8.0 19.3 0.00 0.00 0.00 71 1017.7
20260904202630 28 16 8.0 20.9 0.00 0.00 0.00 71 1017.7
20260904202531 29 355 9.7 22.5 0.00 0.00 0.00 70 1017.6
20260904202430 29 61 11.3 35.4 0.00 0.00 0.00 70 1017.6
20260904202330 29 49 12.9 35.4 0.00 0.00 0.00 70 1017.7
20260904202224 30 50 14.5 35.4 0.00 0.00 0.00 69 1017.8
20260904202125 30 18 14.5 35.4 0.00 0.00 0.00 68 1017.8
20260904202024 30 325 14.5 35.4 0.00 0.00 0.00 67 1017.9
20260904201925 30 325 14.5 35.4 0.00 0.00 0.00 66 1018.0
20260904201825 31 338 12.9 35.4 0.00 0.00 0.00 66 1018.0
20260904201717 31 321 11.3 35.4 0.00 0.00 0.00 64 1018.0
20260904201619 32 323 9.7 35.4 0.00 0.00 0.00 62 1017.9
20260904201518 32 305 8.0 35.4 0.00 0.00 0.00 61 1017.9
20260904201419 33 339 6.4 32.2 0.00 0.00 0.00 59 1017.9
20260904201318 33 306 4.8 24.1 0.00 0.00 0.00 58 1017.9
20260904201210 33 18 3.2 22.5 0.00 0.00 0.00 58 1017.9
20260904201110 33 320 1.6 8.0 0.00 0.00 0.00 57 1017.9
20260904201010 33 299 1.6 6.4 0.00 0.00 0.00 54 1017.9
20260904200911 33 298 1.6 6.4 0.00 0.00 0.00 54 1017.8
20260904200808 34 298 1.6 6.4 0.00 0.00 0.00 56 1017.8
20260904200702 34 298 1.6 6.4 0.00 0.00 0.00 55 1017.8
20260904200602 34 298 1.6 6.4 0.00 0.00 0.00 55 1017.8
20260904200503 34 298 1.6 6.4 0.00 0.00 0.00 55 1017.7
20260904200403 34 166 1.6 6.4 0.00 0.00 0.00 58 1017.7
20260904200302 34 164 1.6 6.4 0.00 0.00 0.00 55 1017.7
20260904200202 34 164 1.6 6.4 0.00 0.00 0.00 56 1017.7
20260904200100 33 164 1.6 6.4 0.00 0.00 0.00 54 1017.7
20260904195959 33 164 1.6 6.4 0.00 0.00 0.00 54 1017.7
20260904195859 33 164 1.6 6.4 0.00 0.00 0.00 54 1017.7
20260904195800 33 164 0.0 6.4 0.00 0.00 0.00 57 1017.6
20260904195701 33 163 0.0 6.4 0.00 0.00 0.00 57 1017.6
20260904195559 33 163 0.0 6.4 0.00 0.00 0.00 56 1017.5
20260904195456 33 163 0.0 6.4 0.00 0.00 0.00 55 1017.5
20260904195356 33 163 0.0 6.4 0.00 0.00 0.00 56 1017.4
20260904195254 33 95 0.0 0.0 0.00 0.00 0.00 60 1017.5
20260904195154 33 82 0.0 0.0 0.00 0.00 0.00 58 1017.4
20260904195052 33 82 0.0 0.0 0.00 0.00 0.00 55 1017.6
20260904194952 33 82 0.0 0.0 0.00 0.00 0.00 55 1017.6
20260904194853 33 82 0.0 0.0 0.00 0.00 0.00 56 1017.6
20260904194752 33 82 0.0 0.0 0.00 0.00 0.00 55 1017.7
20260904194652 33 82 0.0 0.0 0.00 0.00 0.00 54 1017.7
20260904194550 33 150 0.0 0.0 0.00 0.00 0.00 54 1017.8
20260904194451 33 150 0.0 0.0 0.00 0.00 0.00 55 1017.8
20260904194347 33 150 0.0 0.0 0.00 0.00 0.00 54 1017.7
20260904194249 33 150 0.0 0.0 0.00 0.00 0.00 55 1017.7
20260904194146 33 144 0.0 0.0 0.00 0.00 0.00 58 1017.7
20260904194047 33 171 0.0 0.0 0.00 0.00 0.00 56 1017.7
20260904193945 33 153 0.0 0.0 0.00 0.00 0.00 56 1017.6
20260904193843 33 152 0.0 0.0 0.00 0.00 0.00 58 1017.7
20260904193743 33 153 0.0 0.0 0.00 0.00 0.00 59 1017.6
20260904193641 33 153 0.0 0.0 0.00 0.00 0.00 60 1017.6
20260904193541 33 123 0.0 0.0 0.00 0.00 0.00 58 1017.6
20260904193440 33 114 0.0 0.0 0.00 0.00 0.00 58 1017.6
20260904193339 33 110 0.0 0.0 0.00 0.00 0.00 57 1017.6
20260904193235 33 117 0.0 0.0 0.00 0.00 0.00 58 1017.5
20260904193136 33 125 0.0 0.0 0.00 0.00 0.00 57 1017.5
20260904193035 33 132 0.0 0.0 0.00 0.00 0.00 56 1017.4
20260904192936 33 111 0.0 0.0 0.00 0.00 0.00 56 1017.4
20260904192837 33 133 0.0 0.0 0.00 0.00 0.00 56 1017.4
20260904192737 33 78 0.0 0.0 0.00 0.00 0.00 57 1017.5
20260904192636 33 123 0.0 0.0 0.00 0.00 0.00 58 1017.4
20260904192537 33 119 0.0 0.0 0.00 0.00 0.00 55 1017.4
20260904192436 33 130 0.0 0.0 0.00 0.00 0.00 56 1017.5
20260904192334 33 143 0.0 0.0 0.00 0.00 0.00 59 1017.5
20260904192233 33 142 0.0 0.0 0.00 0.00 0.00 59 1017.5
20260904192131 33 153 0.0 0.0 0.00 0.00 0.00 56 1017.6
20260904192031 33 131 0.0 0.0 0.00 0.00 0.00 58 1017.7
20260904191931 32 115 0.0 0.0 0.00 0.00 0.00 57 1017.8
20260904191827 32 116 0.0 0.0 0.00 0.00 0.00 58 1017.8
20260904191728 32 116 0.0 0.0 0.00 0.00 0.00 55 1017.9
20260904191626 32 116 0.0 0.0 0.00 0.00 0.00 57 1017.9
20260904191526 32 116 0.0 0.0 0.00 0.00 0.00 57 1018.0
20260904191424 32 116 0.0 0.0 0.00 0.00 0.00 56 1018.1
20260904191323 32 116 0.0 0.0 0.00 0.00 0.00 57 1018.1
20260904191221 32 98 0.0 0.0 0.00 0.00 0.00 55 1018.1
20260904191121 32 98 0.0 0.0 0.00 0.00 0.00 55 1018.1
20260904191023 32 98 0.0 0.0 0.00 0.00 0.00 56 1018.1
20260904190920 32 98 0.0 0.0 0.00 0.00 0.00 56 1018.2
20260904190819 32 98 0.0 0.0 0.00 0.00 0.00 58 1018.2
20260904190721 32 98 0.0 0.0 0.00 0.00 0.00 57 1018.2
20260904190619 32 98 0.0 0.0 0.00 0.00 0.00 55 1018.2
20260904190519 32 96 0.0 0.0 0.00 0.00 0.00 59 1018.2
20260904190417 32 95 0.0 0.0 0.00 0.00 0.00 56 1018.2
20260904190319 32 113 0.0 0.0 0.00 0.00 0.00 56 1018.2
20260904190219 32 113 0.0 0.0 0.00 0.00 0.00 55 1018.2
20260904190119 32 113 0.0 0.0 0.00 0.00 0.00 59 1018.3
20260904190018 32 122 0.0 0.0 0.00 0.00 0.00 57 1018.3
20260904185916 32 162 0.0 0.0 0.00 0.00 0.00 59 1018.2
20260904185816 32 162 0.0 0.0 0.00 0.00 0.00 59 1018.3
20260904185715 32 100 0.0 0.0 0.00 0.00 0.00 57 1018.2
20260904185616 32 98 0.0 0.0 0.00 0.00 0.00 59 1018.2
20260904185515 32 98 0.0 0.0 0.00 0.00 0.00 57 1018.3
20260904185414 32 98 0.0 0.0 0.00 0.00 0.00 57 1018.3
20260904185314 32 90 0.0 0.0 0.00 0.00 0.00 56 1018.3
20260904185213 32 80 0.0 0.0 0.00 0.00 0.00 55 1018.4
20260904185110 32 79 0.0 0.0 0.00 0.00 0.00 57 1018.4
20260904185004 32 80 0.0 0.0 0.00 0.00 0.00 54 1018.4
20260904184904 32 80 0.0 0.0 0.00 0.00 0.00 55 1018.4
20260904184804 32 80 0.0 0.0 0.00 0.00 0.00 56 1018.4
20260904184704 32 80 0.0 0.0 0.00 0.00 0.00 56 1018.4
20260904184605 32 62 0.0 0.0 0.00 0.00 0.00 57 1018.4
20260904184500 32 62 0.0 0.0 0.00 0.00 0.00 60 1018.4
20260904184359 32 62 0.0 0.0 0.00 0.00 0.00 56 1018.4
20260904184256 32 62 0.0 0.0 0.00 0.00 0.00 56 1018.4
20260904184157 32 62 0.0 0.0 0.00 0.00 0.00 58 1018.4
20260904184054 32 62 0.0 0.0 0.00 0.00 0.00 57 1018.6
20260904183953 32 62 0.0 0.0 0.00 0.00 0.00 58 1018.6
20260904183853 32 62 0.0 0.0 0.00 0.00 0.00 59 1018.6
20260904183752 32 62 0.0 0.0 0.00 0.00 0.00 59 1018.7
20260904183651 32 62 0.0 0.0 0.00 0.00 0.00 60 1018.7
20260904183549 32 105 0.0 0.0 0.00 0.00 0.00 61 1018.7
20260904183443 32 105 0.0 0.0 0.00 0.00 0.00 61 1018.7
20260904183345 32 105 0.0 0.0 0.00 0.00 0.00 59 1018.7
20260904183243 32 105 0.0 0.0 0.00 0.00 0.00 59 1018.8
20260904183144 32 104 0.0 0.0 0.00 0.00 0.00 58 1018.8
20260904183041 32 104 0.0 0.0 0.00 0.00 0.00 58 1018.8
20260904182942 32 104 0.0 0.0 0.00 0.00 0.00 62 1018.8
20260904182842 32 104 0.0 0.0 0.00 0.00 0.00 60 1018.8
20260904182741 32 104 0.0 0.0 0.00 0.00 0.00 60 1018.8
20260904182642 32 102 0.0 0.0 0.00 0.00 0.00 62 1018.9
20260904182541 32 102 0.0 0.0 0.00 0.00 0.00 57 1018.9
20260904182443 32 98 0.0 0.0 0.00 0.00 0.00 59 1018.9
20260904182342 32 108 0.0 0.0 0.00 0.00 0.00 60 1018.9
20260904182242 32 115 0.0 0.0 0.00 0.00 0.00 61 1018.9
20260904182141 32 169 0.0 0.0 0.00 0.00 0.00 62 1018.9
20260904182041 32 178 0.0 0.0 0.00 0.00 0.00 60 1018.9
20260904181942 32 179 0.0 0.0 0.00 0.00 0.00 62 1018.9
20260904181842 32 147 0.0 0.0 0.00 0.00 0.00 61 1018.9
20260904181741 32 136 0.0 0.0 0.00 0.00 0.00 60 1019.0
20260904181643 32 114 0.0 0.0 0.00 0.00 0.00 62 1018.9
20260904181541 32 76 0.0 0.0 0.00 0.00 0.00 60 1018.9
20260904181442 32 76 0.0 0.0 0.00 0.00 0.00 59 1019.0
20260904181343 32 76 0.0 0.0 0.00 0.00 0.00 61 1019.0
20260904181241 32 76 0.0 0.0 0.00 0.00 0.00 58 1018.9
20260904181143 32 76 0.0 0.0 0.00 0.00 0.00 61 1019.0
20260904181041 32 78 0.0 0.0 0.00 0.00 0.00 65 1018.9
20260904180943 32 36 0.0 0.0 0.00 0.00 0.00 64 1019.0
20260904180838 32 34 0.0 0.0 0.00 0.00 0.00 64 1018.9
20260904180738 32 22 0.0 0.0 0.00 0.00 0.00 64 1019.0
20260904180638 32 22 0.0 0.0 0.00 0.00 0.00 62 1018.9
20260904180537 32 22 0.0 0.0 0.00 0.00 0.00 61 1019.0
20260904180439 32 22 0.0 0.0 0.00 0.00 0.00 60 1019.0
20260904180337 32 22 0.0 0.0 0.00 0.00 0.00 60 1019.0
20260904180238 32 22 0.0 0.0 0.00 0.00 0.00 60 1019.0
20260904180137 32 22 0.0 0.0 0.00 0.00 0.00 63 1019.0
20260904180038 32 21 0.0 0.0 0.00 0.00 0.00 62 1019.1
20260904175939 32 31 0.0 0.0 0.00 0.00 0.00 63 1019.1
20260904175837 32 30 0.0 0.0 0.00 0.00 0.00 63 1019.1
20260904175737 32 32 0.0 0.0 0.00 0.00 0.00 65 1019.1
20260904175638 31 32 0.0 0.0 0.00 0.00 0.00 64 1019.1
20260904175538 31 32 0.0 0.0 0.00 0.00 0.00 63 1019.2
20260904175437 31 63 0.0 0.0 0.00 0.00 0.00 64 1019.2
20260904175338 31 80 0.0 0.0 0.00 0.00 0.00 63 1019.2
20260904175243 31 81 0.0 0.0 0.00 0.00 0.00 62 1019.1
20260904175138 31 82 0.0 0.0 0.00 0.00 0.00 62 1019.1
20260904175037 31 84 0.0 0.0 0.00 0.00 0.00 62 1019.2
20260904174939 31 63 0.0 0.0 0.00 0.00 0.00 61 1019.2
20260904174837 32 60 0.0 0.0 0.00 0.00 0.00 64 1019.3
20260904174738 31 33 0.0 0.0 0.00 0.00 0.00 65 1019.2
20260904174638 31 37 0.0 0.0 0.00 0.00 0.00 63 1019.3
20260904174538 31 37 0.0 0.0 0.00 0.00 0.00 63 1019.3
20260904174437 31 34 0.0 0.0 0.00 0.00 0.00 62 1019.3
20260904174339 31 34 0.0 0.0 0.00 0.00 0.00 62 1019.2
20260904174237 31 34 0.0 0.0 0.00 0.00 0.00 62 1019.4
20260904174139 31 63 0.0 0.0 0.00 0.00 0.00 62 1019.3
20260904174039 31 65 0.0 0.0 0.00 0.00 0.00 64 1019.4
20260904173937 31 67 0.0 0.0 0.00 0.00 0.00 61 1019.4
20260904173839 31 67 0.0 0.0 0.00 0.00 0.00 62 1019.4
20260904173737 31 67 0.0 0.0 0.00 0.00 0.00 62 1019.4
20260904173639 31 67 0.0 0.0 0.00 0.00 0.00 63 1019.4
20260904173534 31 65 0.0 0.0 0.00 0.00 0.00 64 1019.4
20260904173434 31 326 0.0 0.0 0.00 0.00 0.00 60 1019.4
20260904173333 31 326 0.0 0.0 0.00 0.00 0.00 60 1019.4
20260904173233 31 327 0.0 0.0 0.00 0.00 0.00 60 1019.4
20260904173134 31 327 0.0 0.0 0.00 0.00 0.00 62 1019.4
20260904173034 31 327 0.0 0.0 0.00 0.00 0.00 62 1019.4
20260904172933 31 327 0.0 0.0 0.00 0.00 0.00 61 1019.4
20260904172833 31 320 0.0 0.0 0.00 0.00 0.00 61 1019.4
20260904172734 31 319 0.0 0.0 0.00 0.00 0.00 63 1019.4
20260904172634 31 319 0.0 0.0 0.00 0.00 0.00 60 1019.5
20260904172534 31 318 0.0 0.0 0.00 0.00 0.00 61 1019.5
20260904172433 31 318 0.0 0.0 0.00 0.00 0.00 62 1019.5
20260904172333 32 318 0.0 0.0 0.00 0.00 0.00 60 1019.4
20260904172234 32 318 0.0 0.0 0.00 0.00 0.00 63 1019.4
20260904172133 32 319 0.0 0.0 0.00 0.00 0.00 61 1019.4
20260904172033 32 318 0.0 0.0 0.00 0.00 0.00 62 1019.4
20260904171934 32 331 0.0 0.0 0.00 0.00 0.00 61 1019.4
20260904171834 32 334 0.0 0.0 0.00 0.00 0.00 60 1019.4
20260904171734 32 334 0.0 0.0 0.00 0.00 0.00 60 1019.5
20260904171633 32 331 0.0 0.0 0.00 0.00 0.00 61 1019.5
20260904171533 32 336 0.0 0.0 0.00 0.00 0.00 63 1019.4
20260904171435 32 290 0.0 0.0 0.00 0.00 0.00 61 1019.5
20260904171333 32 291 0.0 0.0 0.00 0.00 0.00 63 1019.5
20260904171235 32 291 0.0 0.0 0.00 0.00 0.00 60 1019.6
20260904171133 32 290 0.0 0.0 0.00 0.00 0.00 62 1019.5
20260904171035 32 287 0.0 0.0 0.00 0.00 0.00 62 1019.5
20260904170934 32 286 0.0 0.0 0.00 0.00 0.00 60 1019.5
20260904170834 32 287 0.0 0.0 0.00 0.00 0.00 62 1019.5
20260904170732 32 286 0.0 0.0 0.00 0.00 0.00 63 1019.6
20260904170633 32 46 0.0 0.0 0.00 0.00 0.00 62 1019.7
20260904170533 32 46 0.0 0.0 0.00 0.00 0.00 60 1019.6
20260904170434 32 46 0.0 0.0 0.00 0.00 0.00 60 1019.6
20260904170334 32 46 0.0 0.0 0.00 0.00 0.00 60 1019.5
20260904170231 32 47 0.0 0.0 0.00 0.00 0.00 62 1019.6
20260904170129 32 104 0.0 0.0 0.00 0.00 0.00 60 1019.6
20260904170030 32 104 0.0 0.0 0.00 0.00 0.00 60 1019.6
20260904165929 32 104 0.0 0.0 0.00 0.00 0.00 61 1019.6
20260904165829 32 103 0.0 0.0 0.00 0.00 0.00 60 1019.6
20260904165731 32 103 0.0 0.0 0.00 0.00 0.00 60 1019.6
20260904165629 32 103 0.0 0.0 0.00 0.00 0.00 62 1019.6
20260904165529 32 101 0.0 0.0 0.00 0.00 0.00 62 1019.6
20260904165431 32 101 0.0 0.0 0.00 0.00 0.00 62 1019.7
20260904165331 32 101 0.0 0.0 0.00 0.00 0.00 61 1019.7
20260904165229 32 101 0.0 0.0 0.00 0.00 0.00 61 1019.7
20260904165130 32 101 0.0 0.0 0.00 0.00 0.00 61 1019.7
20260904165030 32 101 0.0 0.0 0.00 0.00 0.00 61 1019.6
20260904164930 32 101 0.0 0.0 0.00 0.00 0.00 64 1019.7
20260904164829 32 101 0.0 0.0 0.00 0.00 0.00 65 1019.7
20260904164729 31 101 0.0 0.0 0.00 0.00 0.00 63 1019.7
20260904164630 31 101 0.0 0.0 0.00 0.00 0.00 64 1019.7
20260904164531 31 101 0.0 0.0 0.00 0.00 0.00 61 1019.7
20260904164429 31 101 0.0 0.0 0.00 0.00 0.00 62 1019.8
20260904164329 31 101 0.0 0.0 0.00 0.00 0.00 62 1019.7
20260904164229 31 101 0.0 0.0 0.00 0.00 0.00 63 1019.9
20260904164131 31 101 0.0 0.0 0.00 0.00 0.00 63 1019.9
20260904164030 31 101 0.0 0.0 0.00 0.00 0.00 62 1019.9
20260904163930 31 92 0.0 0.0 0.00 0.00 0.00 64 1019.9
20260904163830 31 37 0.0 0.0 0.00 0.00 0.00 63 1019.9
20260904163731 31 37 0.0 0.0 0.00 0.00 0.00 62 1020.0
20260904163622 31 37 0.0 0.0 0.00 0.00 0.00 62 1020.0
20260904163522 31 37 0.0 0.0 0.00 0.00 0.00 64 1020.0
20260904163421 31 34 0.0 0.0 0.00 0.00 0.00 62 1019.9
20260904163321 31 28 0.0 0.0 0.00 0.00 0.00 62 1020.0
20260904163223 31 9 0.0 0.0 0.00 0.00 0.00 62 1020.0
20260904163123 31 5 0.0 0.0 0.00 0.00 0.00 62 1019.9
20260904163021 31 5 0.0 0.0 0.00 0.00 0.00 61 1020.0
20260904162921 31 5 0.0 0.0 0.00 0.00 0.00 63 1020.0
20260904162822 31 5 0.0 0.0 0.00 0.00 0.00 61 1020.0
20260904162723 31 5 0.0 0.0 0.00 0.00 0.00 61 1020.2
20260904162622 31 0 0.0 0.0 0.00 0.00 0.00 61 1020.0
20260904162521 31 0 0.0 0.0 0.00 0.00 0.00 60 1020.0
20260904162421 31 0 0.0 0.0 0.00 0.00 0.00 61 1020.2
20260904162322 31 0 0.0 0.0 0.00 0.00 0.00 62 1020.2
20260904162222 31 0 0.0 0.0 0.00 0.00 0.00 62 1020.2
20260904162122 31 0 0.0 0.0 0.00 0.00 0.00 62 1020.2
20260904162022 31 0 0.0 0.0 0.00 0.00 0.00 63 1020.2
20260904161923 31 0 0.0 0.0 0.00 0.00 0.00 64 1020.2
20260904161821 31 0 0.0 0.0 0.00 0.00 0.00 64 1020.2
20260904161722 31 0 0.0 0.0 0.00 0.00 0.00 65 1020.2
20260904161623 31 0 0.0 0.0 0.00 0.00 0.00 63 1020.3
20260904161521 31 5 0.0 0.0 0.00 0.00 0.00 63 1020.3
20260904161422 31 5 0.0 0.0 0.00 0.00 0.00 62 1020.3
20260904161322 31 5 0.0 0.0 0.00 0.00 0.00 61 1020.4
20260904161223 31 5 0.0 0.0 0.00 0.00 0.00 62 1020.4
20260904161122 31 9 0.0 0.0 0.00 0.00 0.00 64 1020.3
20260904161023 31 5 0.0 0.0 0.00 0.00 0.00 61 1020.4
20260904160921 31 5 0.0 0.0 0.00 0.00 0.00 63 1020.4
20260904160818 31 5 0.0 0.0 0.00 0.00 0.00 62 1020.4
20260904160718 31 5 0.0 0.0 0.00 0.00 0.00 62 1020.4
20260904160616 31 333 0.0 0.0 0.00 0.00 0.00 62 1020.4
20260904160514 31 333 0.0 0.0 0.00 0.00 0.00 61 1020.4
20260904160414 31 333 0.0 0.0 0.00 0.00 0.00 61 1020.4
20260904160308 31 331 0.0 0.0 0.00 0.00 0.00 62 1020.4
20260904160208 31 332 0.0 0.0 0.00 0.00 0.00 61 1020.3
20260904160106 31 342 0.0 0.0 0.00 0.00 0.00 64 1020.4
20260904160005 31 5 0.0 0.0 0.00 0.00 0.00 63 1020.3
20260904155905 31 5 0.0 0.0 0.00 0.00 0.00 63 1020.4
20260904155802 31 5 0.0 0.0 0.00 0.00 0.00 65 1020.4
20260904155702 31 0 0.0 0.0 0.00 0.00 0.00 63 1020.4
20260904155559 31 0 0.0 0.0 0.00 0.00 0.00 64 1020.3
20260904155501 31 0 0.0 0.0 0.00 0.00 0.00 63 1020.4
20260904155358 31 0 0.0 0.0 0.00 0.00 0.00 61 1020.4
20260904155257 31 0 0.0 0.0 0.00 0.00 0.00 63 1020.3
20260904155157 31 0 0.0 0.0 0.00 0.00 0.00 65 1020.3
20260904155053 31 0 0.0 0.0 0.00 0.00 0.00 64 1020.2
20260904154951 31 0 0.0 0.0 0.00 0.00 0.00 63 1020.3
20260904154848 31 0 0.0 0.0 0.00 0.00 0.00 62 1020.3
20260904154748 31 0 0.0 0.0 0.00 0.00 0.00 67 1020.3
20260904154645 31 0 0.0 0.0 0.00 0.00 0.00 69 1020.3
20260904154544 31 0 0.0 0.0 0.00 0.00 0.00 65 1020.3
20260904154444 31 0 0.0 0.0 0.00 0.00 0.00 65 1020.3
20260904154343 31 0 0.0 0.0 0.00 0.00 0.00 66 1020.3
20260904154240 31 0 0.0 0.0 0.00 0.00 0.00 67 1020.3
20260904154140 31 0 0.0 0.0 0.00 0.00 0.00 66 1020.3
20260904154038 31 0 0.0 0.0 0.00 0.00 0.00 66 1020.3
20260904153935 31 0 0.0 0.0 0.00 0.00 0.00 68 1020.2
20260904153837 31 0 0.0 0.0 0.00 0.00 0.00 67 1020.2
20260904153733 30 0 0.0 0.0 0.00 0.00 0.00 65 1020.3
20260904153635 30 0 0.0 0.0 0.00 0.00 0.00 65 1020.3
20260904153532 30 0 0.0 0.0 0.00 0.00 0.00 64 1020.3
20260904153428 30 0 0.0 0.0 0.00 0.00 0.00 66 1020.3
20260904153325 30 0 0.0 0.0 0.00 0.00 0.00 68 1020.2
20260904153225 30 0 0.0 0.0 0.00 0.00 0.00 64 1020.3
20260904153123 30 0 0.0 0.0 0.00 0.00 0.00 65 1020.3
20260904153024 30 0 0.0 0.0 0.00 0.00 0.00 65 1020.3
20260904152923 30 0 0.0 0.0 0.00 0.00 0.00 65 1020.3
20260904152820 30 0 0.0 0.0 0.00 0.00 0.00 65 1020.3
20260904152718 30 0 0.0 1.6 0.00 0.00 0.00 67 1020.3
20260904152618 30 0 0.0 1.6 0.00 0.00 0.00 67 1020.3
20260904152516 30 0 0.0 1.6 0.00 0.00 0.00 66 1020.3
20260904152415 30 0 0.0 1.6 0.00 0.00 0.00 67 1020.3
20260904152314 30 0 0.0 1.6 0.00 0.00 0.00 68 1020.3
20260904152211 30 0 0.0 1.6 0.00 0.00 0.00 69 1020.3
20260904152111 30 0 0.0 1.6 0.00 0.00 0.00 69 1020.3
20260904152009 30 0 0.0 1.6 0.00 0.00 0.00 71 1020.3
20260904151901 30 0 0.0 1.6 0.00 0.00 0.00 71 1020.2
20260904151801 30 0 0.0 1.6 0.00 0.00 0.00 70 1020.2
20260904151701 30 340 0.0 1.6 0.00 0.00 0.00 71 1020.3
20260904151600 30 340 0.0 1.6 0.00 0.00 0.00 69 1020.2
20260904151458 30 340 0.0 1.6 0.00 0.00 0.00 70 1020.2
20260904151355 29 340 0.0 1.6 0.00 0.00 0.00 72 1020.2
20260904151256 29 340 0.0 1.6 0.00 0.00 0.00 72 1020.2
20260904151155 29 340 0.0 1.6 0.00 0.00 0.00 69 1020.2
20260904151053 29 340 0.0 1.6 0.00 0.00 0.00 70 1020.3
20260904150952 29 340 0.0 4.8 0.00 0.00 0.00 71 1020.3
20260904150848 29 340 1.6 6.4 0.00 0.00 0.00 68 1020.3
20260904150746 29 340 1.6 6.4 0.00 0.00 0.00 69 1020.3
20260904150648 29 340 1.6 6.4 0.00 0.00 0.00 69 1020.3
20260904150547 29 340 3.2 8.0 0.00 0.00 0.00 70 1020.3
20260904150446 29 341 3.2 8.0 0.00 0.00 0.00 71 1020.3
20260904150341 29 341 3.2 8.0 0.00 0.00 0.00 71 1020.0
20260904150240 29 341 3.2 8.0 0.00 0.00 0.00 69 1020.2
20260904150140 29 342 3.2 8.0 0.00 0.00 0.00 69 1020.2
20260904150038 29 343 3.2 8.0 0.00 0.00 0.00 69 1020.2
20260904145935 29 343 3.2 8.0 0.00 0.00 0.00 71 1020.2
20260904145836 29 343 3.2 8.0 0.00 0.00 0.00 70 1020.2
20260904145734 29 344 3.2 8.0 0.00 0.00 0.00 71 1020.2
20260904145631 29 343 3.2 6.4 0.00 0.00 0.00 71 1020.2
20260904145532 29 342 3.2 6.4 0.00 0.00 0.00 70 1020.3
20260904145430 29 342 3.2 6.4 0.00 0.00 0.00 73 1020.3
20260904145330 29 342 3.2 6.4 0.00 0.00 0.00 73 1020.2
20260904145228 29 342 3.2 6.4 0.00 0.00 0.00 73 1020.3
20260904145124 29 342 3.2 8.0 0.00 0.00 0.00 73 1020.3
20260904145023 29 342 3.2 8.0 0.00 0.00 0.00 73 1020.3
20260904144923 29 342 4.8 8.0 0.00 0.00 0.00 72 1020.4
20260904144819 29 342 4.8 8.0 0.00 0.00 0.00 73 1020.3
20260904144719 29 341 3.2 8.0 0.00 0.00 0.00 72 1020.3
20260904144617 29 341 4.8 8.0 0.00 0.00 0.00 72 1020.3
20260904144515 28 340 4.8 8.0 0.00 0.00 0.00 73 1020.2
20260904144413 28 340 4.8 8.0 0.00 0.00 0.00 71 1020.4
20260904144311 28 340 4.8 8.0 0.00 0.00 0.00 73 1020.3
20260904144207 29 344 4.8 6.4 0.00 0.00 0.00 73 1020.4
20260904144109 29 355 4.8 6.4 0.00 0.00 0.00 72 1020.3
20260904144008 29 355 4.8 6.4 0.00 0.00 0.00 72 1020.3
20260904143907 29 347 4.8 6.4 0.00 0.00 0.00 72 1020.3
20260904143804 29 344 4.8 6.4 0.00 0.00 0.00 72 1020.3
20260904143701 29 344 4.8 6.4 0.00 0.00 0.00 71 1020.3
20260904143601 29 21 3.2 6.4 0.00 0.00 0.00 72 1020.3
20260904143501 29 31 3.2 6.4 0.00 0.00 0.00 72 1020.3
20260904143401 29 31 3.2 6.4 0.00 0.00 0.00 73 1020.3
20260904143255 29 32 1.6 6.4 0.00 0.00 0.00 72 1020.2
20260904143156 29 328 1.6 6.4 0.00 0.00 0.00 73 1020.3
20260904143057 29 325 1.6 6.4 0.00 0.00 0.00 72 1020.3
20260904142954 29 325 1.6 6.4 0.00 0.00 0.00 73 1020.3
20260904142851 29 325 1.6 6.4 0.00 0.00 0.00 71 1020.3
20260904142749 29 325 0.0 6.4 0.00 0.00 0.00 72 1020.2
20260904142647 29 325 0.0 4.8 0.00 0.00 0.00 71 1020.2
20260904142549 29 340 0.0 1.6 0.00 0.00 0.00 71 1020.3
20260904142448 29 5 0.0 1.6 0.00 0.00 0.00 73 1020.2
20260904142346 29 11 0.0 0.0 0.00 0.00 0.00 74 1020.2
20260904142239 29 10 0.0 0.0 0.00 0.00 0.00 74 1020.2
20260904142140 29 11 0.0 0.0 0.00 0.00 0.00 72 1020.2
20260904142039 29 11 0.0 0.0 0.00 0.00 0.00 73 1020.2
20260904141940 29 11 0.0 0.0 0.00 0.00 0.00 73 1020.2
20260904141840 29 11 0.0 0.0 0.00 0.00 0.00 73 1020.2
20260904141735 29 10 0.0 1.6 0.00 0.00 0.00 74 1020.2
20260904141634 29 9 0.0 1.6 0.00 0.00 0.00 72 1020.2
20260904141533 29 9 0.0 1.6 0.00 0.00 0.00 72 1020.2
20260904141432 29 9 0.0 1.6 0.00 0.00 0.00 72 1020.2
20260904141330 29 9 0.0 3.2 0.00 0.00 0.00 72 1020.2
20260904141227 29 5 0.0 3.2 0.00 0.00 0.00 71 1020.2
20260904141126 29 5 0.0 3.2 0.00 0.00 0.00 72 1020.2
20260904141026 29 5 0.0 3.2 0.00 0.00 0.00 72 1020.2
20260904140925 29 5 0.0 3.2 0.00 0.00 0.00 71 1020.2
20260904140823 29 0 0.0 3.2 0.00 0.00 0.00 70 1020.2
20260904140720 29 350 0.0 3.2 0.00 0.00 0.00 75 1020.2
20260904140617 29 355 0.0 3.2 0.00 0.00 0.00 71 1020.3
20260904140518 29 355 0.0 3.2 0.00 0.00 0.00 73 1020.2
20260904140418 29 355 0.0 3.2 0.00 0.00 0.00 73 1020.3
20260904140318 29 355 0.0 0.0 0.00 0.00 0.00 72 1020.3
20260904140109 29 355 0.0 0.0 0.00 0.00 0.00 72 1020.0
20260904140008 29 355 0.0 0.0 0.00 0.00 0.00 71 1020.0
20260904135909 29 355 0.0 0.0 0.00 0.00 0.00 73 1020.0
20260904135808 29 355 0.0 0.0 0.00 0.00 0.00 72 1020.0
20260904135700 29 348 0.0 0.0 0.00 0.00 0.00 72 1020.0
20260904135601 29 330 0.0 0.0 0.00 0.00 0.00 73 1020.0
20260904135501 28 303 0.0 0.0 0.00 0.00 0.00 72 1020.0
20260904135402 28 303 0.0 0.0 0.00 0.00 0.00 73 1020.0
20260904135305 28 303 0.0 1.6 0.00 0.00 0.00 71 1020.0
20260904135158 28 303 0.0 3.2 0.00 0.00 0.00 72 1020.0
20260904135058 28 303 0.0 3.2 0.00 0.00 0.00 72 1020.0
20260904134958 28 303 0.0 3.2 0.00 0.00 0.00 72 1019.9
20260904134857 28 303 0.0 3.2 0.00 0.00 0.00 73 1019.9
20260904134755 28 303 1.6 3.2 0.00 0.00 0.00 73 1019.8
20260904134648 28 303 1.6 4.8 0.00 0.00 0.00 74 1019.8
20260904134546 28 303 1.6 4.8 0.00 0.00 0.00 72 1019.8
20260904134447 28 303 1.6 4.8 0.00 0.00 0.00 73 1019.8
20260904134348 28 295 1.6 4.8 0.00 0.00 0.00 73 1019.8
20260904134244 28 296 3.2 4.8 0.00 0.00 0.00 73 1019.8
20260904134140 28 296 3.2 4.8 0.00 0.00 0.00 74 1019.7
20260904134037 28 296 3.2 4.8 0.00 0.00 0.00 75 1019.7
20260904133938 28 296 3.2 4.8 0.00 0.00 0.00 75 1019.8
20260904133836 28 296 3.2 4.8 0.00 0.00 0.00 73 1019.8
20260904133738 28 297 3.2 4.8 0.00 0.00 0.00 73 1019.8
20260904133635 28 297 3.2 4.8 0.00 0.00 0.00 73 1019.8
20260904133531 28 297 3.2 4.8 0.00 0.00 0.00 73 1019.8
20260904133432 28 298 3.2 4.8 0.00 0.00 0.00 73 1019.8
20260904133331 28 309 3.2 4.8 0.00 0.00 0.00 75 1019.7
20260904133232 28 311 3.2 4.8 0.00 0.00 0.00 75 1019.8
20260904133122 28 292 3.2 4.8 0.00 0.00 0.00 75 1019.7
20260904133022 28 292 3.2 4.8 0.00 0.00 0.00 74 1019.7
20260904132921 28 292 3.2 4.8 0.00 0.00 0.00 74 1019.6
20260904132821 28 274 3.2 4.8 0.00 0.00 0.00 75 1019.7
20260904132721 28 299 3.2 4.8 0.00 0.00 0.00 75 1019.7
20260904132617 28 299 3.2 4.8 0.00 0.00 0.00 74 1019.9
20260904132516 28 300 3.2 6.4 0.00 0.00 0.00 75 1019.7
20260904132416 28 303 3.2 8.0 0.00 0.00 0.00 75 1019.7
20260904132316 28 303 3.2 8.0 0.00 0.00 0.00 75 1019.8
20260904132216 27 302 3.2 8.0 0.00 0.00 0.00 76 1019.7